AFR256 LFPG-WSSS

Flight info

Callsign AFR256
Flight time N/A
Altitude 29000
Route LANVI DCT BEGAR DCT TRA DCT GAMSA DCT UMVEG DCT DIMLO/N0489F310 DCT SOGMO DCT MOPUG DCT LUGEB DCT UDROS UM859 KARDE UL851 TBN UR317 REBLO M11 EDATA/N0489F330 M11 LUSAL N199 BAKUV N701 LARGI B701 KRS A240 INRAK B449 DOLOS B475 RUBAD A846 RANAH L750 ZB G202 RK P628 IBANI L510 SADEV/N0494F350 L510 GIVAL P628 VPL Y503 RINBA Y507 MAKNA Y511 TOPOR A464 ARAMA DCT TEBUN TEBUN1B
Aircraft B77W/H-SDE1E2E3FGHIJ2J3J4J5M1RWXY/LB1D1

Departure

Time 2026-05-07 21:51
Airport Charles de Gaulle International Airport (LFPG)

Arrival

Time N/A
Airport Singapore Changi Airport (WSSS)
Time Latitude Longitude Altitude Speed Heading
2026-05-07 20:48 49.00286 2.58629 365 ft 0 kts 265°
2026-05-07 21:35 49.00287 2.58643 364 ft 3 kts 257°
2026-05-07 21:35 49.00293 2.58671 368 ft 3 kts 261°
2026-05-07 21:35 49.00295 2.58696 364 ft 3 kts 265°
2026-05-07 21:36 49.00297 2.58726 363 ft 3 kts 249°
2026-05-07 21:36 49.00305 2.58747 366 ft 3 kts 198°
2026-05-07 21:36 49.00322 2.58748 365 ft 3 kts 175°
2026-05-07 21:36 49.00341 2.58746 360 ft 1 kts 175°
2026-05-07 21:37 49.00342 2.58746 360 ft 0 kts 175°
2026-05-07 21:40 49.00326 2.58747 362 ft 3 kts 179°
2026-05-07 21:40 49.00288 2.58748 359 ft 10 kts 178°
2026-05-07 21:40 49.00211 2.58757 367 ft 11 kts 175°
2026-05-07 21:41 49.00136 2.58767 359 ft 11 kts 175°
2026-05-07 21:41 49.00067 2.58754 363 ft 9 kts 204°
2026-05-07 21:41 49.00034 2.58682 360 ft 9 kts 257°
2026-05-07 21:41 49.00026 2.58593 359 ft 9 kts 264°
2026-05-07 21:42 49.00021 2.58502 359 ft 9 kts 265°
2026-05-07 21:42 49.00017 2.58412 367 ft 9 kts 266°
2026-05-07 21:42 49.00012 2.58322 364 ft 9 kts 265°
2026-05-07 21:42 49.00007 2.58225 362 ft 12 kts 265°
2026-05-07 21:43 49.00000 2.58099 365 ft 12 kts 265°
2026-05-07 21:43 48.99993 2.57973 364 ft 12 kts 265°
2026-05-07 21:43 48.99987 2.57848 366 ft 12 kts 265°
2026-05-07 21:43 48.99980 2.57722 359 ft 12 kts 265°
2026-05-07 21:44 48.99972 2.57597 364 ft 12 kts 265°
2026-05-07 21:44 48.99966 2.57471 359 ft 12 kts 265°
2026-05-07 21:44 48.99959 2.57347 368 ft 12 kts 265°
2026-05-07 21:44 48.99953 2.57221 361 ft 12 kts 265°
2026-05-07 21:45 48.99946 2.57096 365 ft 12 kts 265°
2026-05-07 21:45 48.99939 2.56970 360 ft 12 kts 265°
2026-05-07 21:45 48.99932 2.56844 359 ft 12 kts 265°
2026-05-07 21:45 48.99925 2.56718 362 ft 12 kts 265°
2026-05-07 21:46 48.99919 2.56593 365 ft 12 kts 265°
2026-05-07 21:46 48.99912 2.56467 364 ft 12 kts 265°
2026-05-07 21:46 48.99906 2.56341 359 ft 12 kts 265°
2026-05-07 21:46 48.99900 2.56216 362 ft 12 kts 265°
2026-05-07 21:47 48.99894 2.56090 359 ft 12 kts 265°
2026-05-07 21:47 48.99892 2.55965 359 ft 12 kts 276°
2026-05-07 21:47 48.99902 2.55876 363 ft 7 kts 273°
2026-05-07 21:47 48.99881 2.55812 368 ft 7 kts 221°
2026-05-07 21:48 48.99835 2.55799 366 ft 7 kts 177°
2026-05-07 21:48 48.99787 2.55803 366 ft 7 kts 176°
2026-05-07 21:48 48.99739 2.55807 363 ft 7 kts 176°
2026-05-07 21:48 48.99691 2.55812 359 ft 7 kts 176°
2026-05-07 21:49 48.99644 2.55817 366 ft 6 kts 176°
2026-05-07 21:49 48.99615 2.55830 363 ft 4 kts 145°
2026-05-07 21:49 48.99605 2.55873 363 ft 4 kts 100°
2026-05-07 21:49 48.99605 2.55903 361 ft 4 kts 86°
2026-05-07 21:50 48.99615 2.56131 368 ft 51 kts 86°
2026-05-07 21:50 48.99665 2.57056 360 ft 123 kts 85°
2026-05-07 21:50 48.99754 2.58690 359 ft 184 kts 85°
2026-05-07 21:50 48.99882 2.60741 764 ft 192 kts 84°
2026-05-07 21:51 48.99989 2.62797 1377 ft 197 kts 86°
2026-05-07 21:51 49.00083 2.64866 1945 ft 200 kts 86°
2026-05-07 21:51 49.00196 2.66980 2436 ft 202 kts 85°
2026-05-07 21:51 49.00317 2.69132 2792 ft 205 kts 85°
2026-05-07 21:52 49.00431 2.71312 3191 ft 207 kts 86°
2026-05-07 21:52 49.00541 2.73519 3533 ft 214 kts 86°
2026-05-07 21:52 49.00658 2.75850 3727 ft 227 kts 86°
2026-05-07 21:52 49.00727 2.78325 3964 ft 240 kts 95°
2026-05-07 21:53 49.00489 2.80888 4357 ft 248 kts 100°
2026-05-07 21:53 49.00175 2.83514 4835 ft 257 kts 100°
2026-05-07 21:53 48.99862 2.86256 5212 ft 268 kts 99°
2026-05-07 21:53 48.99552 2.89106 5680 ft 277 kts 99°
2026-05-07 21:54 48.99244 2.92028 6259 ft 281 kts 99°
2026-05-07 21:54 48.98937 2.94964 6831 ft 286 kts 99°
2026-05-07 21:54 48.98651 2.97978 7407 ft 289 kts 98°
2026-05-07 21:54 48.98395 3.01036 7996 ft 293 kts 98°
2026-05-07 21:55 48.98141 3.04147 8561 ft 298 kts 98°
2026-05-07 21:55 48.97883 3.07300 9122 ft 302 kts 98°
2026-05-07 21:55 48.97617 3.10508 9652 ft 308 kts 98°
2026-05-07 21:55 48.97345 3.13772 10176 ft 313 kts 98°
2026-05-07 21:56 48.97063 3.17123 10467 ft 327 kts 98°
2026-05-07 21:56 48.96763 3.20660 10616 ft 346 kts 98°
2026-05-07 21:56 48.96445 3.24394 10771 ft 365 kts 98°
2026-05-07 21:56 48.96110 3.28319 11043 ft 380 kts 98°
2026-05-07 21:57 48.95766 3.32347 11533 ft 389 kts 98°
2026-05-07 21:57 48.95412 3.36463 12150 ft 393 kts 98°
2026-05-07 21:57 48.95060 3.40551 12837 ft 396 kts 98°
2026-05-07 21:57 48.94694 3.44777 13552 ft 399 kts 98°
2026-05-07 21:58 48.94334 3.48916 14181 ft 402 kts 98°
2026-05-07 21:58 48.93963 3.53154 14755 ft 406 kts 98°
2026-05-07 21:58 48.93616 3.57436 15347 ft 410 kts 96°
2026-05-07 21:58 48.93366 3.61773 15941 ft 414 kts 95°
2026-05-07 21:59 48.93153 3.66155 16505 ft 417 kts 95°
2026-05-07 21:59 48.92944 3.70597 17087 ft 421 kts 95°
2026-05-07 21:59 48.92725 3.75058 17664 ft 425 kts 95°
2026-05-07 21:59 48.92495 3.79564 18239 ft 429 kts 95°
2026-05-07 22:00 48.92254 3.84097 18737 ft 432 kts 95°
2026-05-07 22:00 48.92006 3.88679 19243 ft 435 kts 95°
2026-05-07 22:00 48.91753 3.93268 19760 ft 438 kts 95°
2026-05-07 22:00 48.91499 3.97845 20258 ft 441 kts 95°
2026-05-07 22:01 48.91236 4.02558 20756 ft 444 kts 95°
2026-05-07 22:01 48.90976 4.07187 21241 ft 447 kts 95°
2026-05-07 22:01 48.90710 4.11907 21722 ft 450 kts 95°
2026-05-07 22:01 48.90439 4.16661 22196 ft 453 kts 95°
2026-05-07 22:02 48.90121 4.21430 22610 ft 454 kts 101°
2026-05-07 22:02 48.89164 4.25988 22897 ft 455 kts 120°
2026-05-07 22:02 48.87569 4.30143 23245 ft 457 kts 122°
2026-05-07 22:02 48.85946 4.34316 23647 ft 460 kts 122°
2026-05-07 22:03 48.84339 4.38531 24052 ft 462 kts 121°
2026-05-07 22:03 48.82747 4.42781 24466 ft 464 kts 121°
2026-05-07 22:03 48.81158 4.47067 24847 ft 466 kts 121°
2026-05-07 22:03 48.79569 4.51374 25210 ft 469 kts 121°
2026-05-07 22:04 48.77976 4.55704 25543 ft 471 kts 121°
2026-05-07 22:04 48.76373 4.60055 25901 ft 474 kts 121°
2026-05-07 22:04 48.75306 4.62947 26132 ft 475 kts 121°
2026-05-07 22:04 48.73157 4.68760 26587 ft 478 kts 121°
2026-05-07 22:05 48.71525 4.73164 26921 ft 481 kts 121°
2026-05-07 22:05 48.69879 4.77596 27245 ft 483 kts 121°
2026-05-07 22:05 48.68762 4.80597 27451 ft 485 kts 121°
2026-05-07 22:05 48.67102 4.85052 27749 ft 487 kts 121°
2026-05-07 22:06 48.65434 4.89520 28045 ft 489 kts 121°
2026-05-07 22:06 48.63775 4.93960 28330 ft 491 kts 121°
2026-05-07 22:06 48.62088 4.98465 28613 ft 493 kts 121°
2026-05-07 22:06 48.60393 5.02984 28893 ft 495 kts 121°
2026-05-07 22:07 48.58681 5.07539 29151 ft 497 kts 121°
2026-05-07 22:07 48.56969 5.12087 29414 ft 499 kts 121°
2026-05-07 22:07 48.55254 5.16636 29777 ft 498 kts 121°
2026-05-07 22:07 48.53541 5.21172 30168 ft 496 kts 121°
2026-05-07 22:08 48.51829 5.25699 30391 ft 498 kts 122°
2026-05-07 22:08 48.50105 5.30248 30600 ft 499 kts 122°
2026-05-07 22:08 48.48378 5.34797 30872 ft 498 kts 122°
2026-05-07 22:08 48.46652 5.39335 31020 ft 501 kts 122°
2026-05-07 22:09 48.43198 5.48392 31073 ft 501 kts 122°
2026-05-07 22:09 48.39748 5.57416 31070 ft 496 kts 122°
2026-05-07 22:10 48.36315 5.66358 31076 ft 496 kts 122°
2026-05-07 22:10 48.32857 5.75344 31074 ft 496 kts 122°
2026-05-07 22:11 48.29790 5.84550 31092 ft 498 kts 110°
2026-05-07 22:11 48.27720 5.94518 31089 ft 500 kts 108°
2026-05-07 22:12 48.25705 6.04568 31075 ft 503 kts 109°
2026-05-07 22:12 48.23571 6.14579 31083 ft 504 kts 110°
2026-05-07 22:13 48.21365 6.24579 31075 ft 505 kts 110°
2026-05-07 22:13 48.19137 6.34585 31074 ft 506 kts 110°
2026-05-07 22:14 48.16919 6.44528 31067 ft 505 kts 110°
2026-05-07 22:14 48.14685 6.54512 31078 ft 505 kts 110°
2026-05-07 22:15 48.12448 6.64467 31078 ft 504 kts 110°
2026-05-07 22:15 48.10204 6.74404 31079 ft 504 kts 110°
2026-05-07 22:16 48.07952 6.84331 31066 ft 504 kts 110°
2026-05-07 22:16 48.05690 6.94256 31078 ft 504 kts 110°
2026-05-07 22:17 48.03436 7.04098 31068 ft 504 kts 110°
2026-05-07 22:17 48.01156 7.14008 31081 ft 504 kts 110°
2026-05-07 22:18 47.97720 7.28860 31067 ft 505 kts 110°
2026-05-07 22:19 47.95417 7.38758 31074 ft 505 kts 111°
2026-05-07 22:19 47.93117 7.48602 31074 ft 506 kts 111°
2026-05-07 22:20 47.90786 7.58531 31067 ft 507 kts 111°
2026-05-07 22:20 47.88339 7.68412 31071 ft 507 kts 112°
2026-05-07 22:21 47.85819 7.78227 31075 ft 508 kts 112°
2026-05-07 22:21 47.83296 7.88069 31076 ft 508 kts 112°
2026-05-07 22:22 47.80801 7.97839 31086 ft 507 kts 112°
2026-05-07 22:22 47.78284 8.07654 31080 ft 507 kts 112°
2026-05-07 22:23 47.75762 8.17453 31083 ft 507 kts 112°
2026-05-07 22:23 47.73249 8.27165 31077 ft 506 kts 112°
2026-05-07 22:24 47.70698 8.36988 31063 ft 506 kts 113°
2026-05-07 22:24 47.68192 8.46678 31066 ft 507 kts 111°
2026-05-07 22:25 47.65924 8.56614 31084 ft 509 kts 109°
2026-05-07 22:25 47.63736 8.66603 31081 ft 510 kts 110°
2026-05-07 22:26 47.61494 8.76602 31077 ft 511 kts 110°
2026-05-07 22:26 47.59210 8.86588 31068 ft 512 kts 110°
2026-05-07 22:27 47.56908 8.96581 31073 ft 512 kts 110°
2026-05-07 22:27 47.54613 9.06509 31061 ft 513 kts 110°
2026-05-07 22:28 47.52297 9.16487 31066 ft 512 kts 110°
2026-05-07 22:28 47.49974 9.26458 31049 ft 512 kts 110°
2026-05-07 22:29 47.47643 9.36409 31062 ft 512 kts 111°
2026-05-07 22:29 47.45305 9.46351 31075 ft 512 kts 111°
2026-05-07 22:30 47.42953 9.56311 31070 ft 512 kts 111°
2026-05-07 22:30 47.40838 9.66359 31069 ft 513 kts 103°
2026-05-07 22:31 47.39843 9.76727 31081 ft 514 kts 96°
2026-05-07 22:31 47.39079 9.87228 31068 ft 514 kts 97°
2026-05-07 22:32 47.38267 9.97740 31076 ft 515 kts 97°
2026-05-07 22:32 47.37419 10.08230 31074 ft 515 kts 97°
2026-05-07 22:33 47.36554 10.18741 31065 ft 516 kts 97°
2026-05-07 22:33 47.35687 10.29194 31081 ft 516 kts 97°
2026-05-07 22:34 47.34811 10.39659 31075 ft 516 kts 98°
2026-05-07 22:34 47.33916 10.50186 31068 ft 517 kts 98°
2026-05-07 22:35 47.33016 10.60707 31066 ft 518 kts 98°
2026-05-07 22:35 47.32106 10.71242 31082 ft 517 kts 98°
2026-05-07 22:36 47.31187 10.81702 31070 ft 517 kts 98°
2026-05-07 22:36 47.30256 10.92213 31090 ft 517 kts 98°
2026-05-07 22:37 47.29318 11.02719 31091 ft 517 kts 98°
2026-05-07 22:37 47.28367 11.13238 31086 ft 517 kts 98°
2026-05-07 22:38 47.27414 11.23672 31101 ft 518 kts 98°
2026-05-07 22:38 47.26441 11.34214 31099 ft 519 kts 98°
2026-05-07 22:39 47.25460 11.44740 31107 ft 519 kts 98°
2026-05-07 22:39 47.24466 11.55293 31108 ft 520 kts 98°
2026-05-07 22:40 47.23469 11.65784 31104 ft 521 kts 98°
2026-05-07 22:40 47.22453 11.76358 31099 ft 522 kts 99°
2026-05-07 22:41 47.21426 11.86947 31096 ft 522 kts 99°
2026-05-07 22:41 47.20403 11.97464 31094 ft 522 kts 98°
2026-05-07 22:42 47.19375 12.08039 31097 ft 522 kts 99°
2026-05-07 22:42 47.18342 12.18595 31089 ft 521 kts 99°
2026-05-07 22:43 47.17300 12.29152 31108 ft 520 kts 99°
2026-05-07 22:43 47.16252 12.39616 31096 ft 521 kts 99°
2026-05-07 22:44 47.15186 12.50153 31102 ft 521 kts 99°
2026-05-07 22:44 47.14112 12.60700 31108 ft 522 kts 99°
2026-05-07 22:45 47.13027 12.71245 31096 ft 523 kts 99°
2026-05-07 22:45 47.11930 12.81825 31114 ft 524 kts 99°
2026-05-07 22:46 47.10820 12.92418 31104 ft 526 kts 99°
2026-05-07 22:46 47.09696 13.03044 31117 ft 527 kts 99°
2026-05-07 22:47 47.08567 13.13611 31103 ft 527 kts 99°
2026-05-07 22:47 47.07420 13.24271 31105 ft 528 kts 100°
2026-05-07 22:48 47.06263 13.34890 31075 ft 527 kts 100°
2026-05-07 22:48 47.05102 13.45508 31079 ft 528 kts 100°
2026-05-07 22:49 47.03925 13.56117 31098 ft 528 kts 100°
2026-05-07 22:49 47.02747 13.66670 31107 ft 529 kts 100°
2026-05-07 22:50 47.01549 13.77323 31097 ft 529 kts 100°
2026-05-07 22:50 47.00340 13.87963 31102 ft 529 kts 101°
2026-05-07 22:51 46.99124 13.98600 31088 ft 529 kts 101°
2026-05-07 22:51 46.97898 14.09223 31090 ft 529 kts 101°
2026-05-07 22:52 46.96658 14.19849 31105 ft 529 kts 101°
2026-05-07 22:52 46.95416 14.30432 31103 ft 530 kts 101°
2026-05-07 22:53 46.94153 14.41085 31088 ft 531 kts 101°
2026-05-07 22:53 46.93096 14.49949 31075 ft 532 kts 101°
2026-05-07 22:54 46.91812 14.60624 31084 ft 533 kts 101°
2026-05-07 22:54 46.90515 14.71315 31083 ft 534 kts 101°
2026-05-07 22:55 46.89210 14.82002 31097 ft 534 kts 101°
2026-05-07 22:55 46.87890 14.92709 31078 ft 534 kts 102°
2026-05-07 22:56 46.86565 15.03387 31075 ft 533 kts 102°
2026-05-07 22:56 46.85239 15.13974 31085 ft 532 kts 102°
2026-05-07 22:57 46.83896 15.24614 31075 ft 532 kts 102°
2026-05-07 22:57 46.82559 15.35137 31069 ft 531 kts 102°
2026-05-07 22:58 46.81210 15.45659 31075 ft 530 kts 102°
2026-05-07 22:58 46.79844 15.56238 31075 ft 530 kts 103°
2026-05-07 22:59 46.78467 15.66825 31073 ft 530 kts 103°
2026-05-07 22:59 46.77082 15.77387 31079 ft 530 kts 103°
2026-05-07 23:00 46.75682 15.87981 31080 ft 531 kts 103°
2026-05-07 23:00 46.74285 15.98485 31076 ft 531 kts 103°
2026-05-07 23:01 46.72867 16.09058 31073 ft 531 kts 103°
2026-05-07 23:01 46.71440 16.19626 31069 ft 531 kts 103°
2026-05-07 23:02 46.70004 16.30197 31072 ft 531 kts 103°
2026-05-07 23:02 46.68566 16.40755 31070 ft 531 kts 102°
2026-05-07 23:03 46.67764 16.51461 31080 ft 532 kts 96°
2026-05-07 23:03 46.67249 16.62215 31066 ft 533 kts 96°
2026-05-07 23:04 46.66696 16.72970 31062 ft 533 kts 96°
2026-05-07 23:04 46.66103 16.83688 31067 ft 533 kts 97°
2026-05-07 23:05 46.65490 16.94434 31048 ft 532 kts 97°
2026-05-07 23:05 46.64871 17.05168 31050 ft 532 kts 97°
2026-05-07 23:06 46.64244 17.15888 31041 ft 532 kts 97°
2026-05-07 23:06 46.63615 17.26491 31017 ft 531 kts 97°
2026-05-07 23:07 46.62969 17.37192 31046 ft 530 kts 97°
2026-05-07 23:07 46.62319 17.47802 31049 ft 529 kts 97°
2026-05-07 23:08 46.61655 17.58485 31041 ft 529 kts 98°
2026-05-07 23:08 46.60952 17.69136 31035 ft 528 kts 101°
2026-05-07 23:09 46.59616 17.79589 31044 ft 525 kts 105°
2026-05-07 23:09 46.58151 17.89996 31038 ft 524 kts 105°
2026-05-07 23:10 46.56715 18.00331 31048 ft 524 kts 104°
2026-05-07 23:10 46.55290 18.10714 31048 ft 523 kts 104°
2026-05-07 23:11 46.53865 18.21080 31038 ft 522 kts 104°
2026-05-07 23:11 46.52431 18.31429 31045 ft 521 kts 105°
2026-05-07 23:12 46.50991 18.41734 31050 ft 521 kts 105°
2026-05-07 23:12 46.49543 18.52023 31050 ft 518 kts 105°
2026-05-07 23:13 46.48102 18.62185 31039 ft 517 kts 105°
2026-05-07 23:13 46.46647 18.72378 31041 ft 515 kts 105°
2026-05-07 23:14 46.45188 18.82537 31016 ft 514 kts 105°
2026-05-07 23:14 46.43722 18.92666 31041 ft 512 kts 105°
2026-05-07 23:15 46.42260 19.02716 31042 ft 511 kts 105°
2026-05-07 23:15 46.40833 19.12450 31040 ft 510 kts 105°
2026-05-07 23:16 46.39349 19.22510 31021 ft 510 kts 105°
2026-05-07 23:16 46.37859 19.32551 31042 ft 510 kts 105°
2026-05-07 23:17 46.36361 19.42579 31046 ft 510 kts 106°
2026-05-07 23:17 46.34850 19.52630 31048 ft 510 kts 106°
2026-05-07 23:18 46.33341 19.62603 31031 ft 509 kts 106°
2026-05-07 23:18 46.31819 19.72600 31040 ft 509 kts 106°
2026-05-07 23:19 46.30288 19.82596 31046 ft 509 kts 106°
2026-05-07 23:19 46.28749 19.92577 31044 ft 508 kts 106°
2026-05-07 23:20 46.27201 20.02559 31039 ft 508 kts 106°
2026-05-07 23:20 46.25646 20.12521 31047 ft 508 kts 106°
2026-05-07 23:21 46.24081 20.22487 31048 ft 508 kts 106°
2026-05-07 23:21 46.22508 20.32443 31040 ft 508 kts 106°
2026-05-07 23:22 46.20937 20.42329 31037 ft 508 kts 106°
2026-05-07 23:22 46.19348 20.52270 31039 ft 508 kts 106°
2026-05-07 23:23 46.17751 20.62210 31038 ft 507 kts 106°
2026-05-07 23:23 46.16060 20.72080 31034 ft 505 kts 111°
2026-05-07 23:24 46.13608 20.81464 31035 ft 502 kts 115°
2026-05-07 23:24 46.11095 20.90637 31043 ft 502 kts 115°
2026-05-07 23:25 46.08545 21.00027 31042 ft 503 kts 115°
2026-05-07 23:25 46.06010 21.09426 31032 ft 503 kts 115°
2026-05-07 23:26 46.03470 21.18833 31049 ft 503 kts 115°
2026-05-07 23:26 46.00937 21.28175 31046 ft 503 kts 115°
2026-05-07 23:27 45.97100 21.42244 31051 ft 503 kts 115°
2026-05-07 23:27 45.94537 21.51594 31036 ft 503 kts 115°
2026-05-07 23:28 45.91965 21.60941 31042 ft 503 kts 115°
2026-05-07 23:28 45.89379 21.70301 31051 ft 504 kts 115°
2026-05-07 23:29 45.86783 21.79660 31034 ft 505 kts 116°
2026-05-07 23:29 45.84195 21.88955 31047 ft 504 kts 116°
2026-05-07 23:30 45.81588 21.98285 31050 ft 504 kts 116°
2026-05-07 23:30 45.78974 22.07605 31057 ft 503 kts 116°
2026-05-07 23:31 45.76357 22.16899 31042 ft 502 kts 116°
2026-05-07 23:31 45.73741 22.26155 31055 ft 500 kts 116°
2026-05-07 23:32 45.71139 22.35324 31062 ft 499 kts 116°
2026-05-07 23:32 45.68520 22.44522 31062 ft 498 kts 116°
2026-05-07 23:33 45.65898 22.53687 31066 ft 498 kts 116°
2026-05-07 23:33 45.63266 22.62858 31072 ft 499 kts 116°
2026-05-07 23:34 45.60617 22.72056 31083 ft 500 kts 116°
2026-05-07 23:34 45.57961 22.81239 31088 ft 500 kts 116°
2026-05-07 23:35 45.55297 22.90417 31088 ft 500 kts 116°
2026-05-07 23:35 45.52643 22.99534 31085 ft 500 kts 116°
2026-05-07 23:36 45.49957 23.08721 31092 ft 500 kts 116°
2026-05-07 23:36 45.47274 23.17865 31085 ft 500 kts 116°
2026-05-07 23:37 45.44584 23.26999 31088 ft 500 kts 116°
2026-05-07 23:37 45.41888 23.36125 31100 ft 500 kts 116°
2026-05-07 23:38 45.39196 23.45194 31102 ft 500 kts 116°
2026-05-07 23:38 45.36481 23.54313 31094 ft 501 kts 116°
2026-05-07 23:39 45.33763 23.63418 31092 ft 500 kts 116°
2026-05-07 23:39 45.31032 23.72517 31100 ft 500 kts 116°
2026-05-07 23:40 45.28760 23.80062 31109 ft 499 kts 116°
2026-05-07 23:40 45.26016 23.89153 31095 ft 500 kts 116°
2026-05-07 23:41 45.23272 23.98215 31089 ft 500 kts 116°
2026-05-07 23:41 45.20528 24.07238 31103 ft 500 kts 116°
2026-05-07 23:42 45.17768 24.16289 31067 ft 501 kts 116°
2026-05-07 23:42 45.15013 24.25287 31083 ft 502 kts 116°
2026-05-07 23:43 45.12220 24.34375 31086 ft 503 kts 116°
2026-05-07 23:43 45.09422 24.43447 31080 ft 503 kts 116°
2026-05-07 23:44 45.06627 24.52476 31075 ft 503 kts 116°
2026-05-07 23:44 45.03802 24.61575 31073 ft 502 kts 116°
2026-05-07 23:45 45.01010 24.70531 31067 ft 500 kts 116°
2026-05-07 23:45 44.98197 24.79525 31075 ft 499 kts 116°
2026-05-07 23:46 44.95379 24.88507 31068 ft 499 kts 116°
2026-05-07 23:46 44.92561 24.97454 31072 ft 498 kts 116°
2026-05-07 23:47 44.89757 25.06327 31066 ft 498 kts 116°
2026-05-07 23:47 44.86920 25.15272 31054 ft 498 kts 116°
2026-05-07 23:48 44.84090 25.24165 31063 ft 497 kts 116°
2026-05-07 23:48 44.81257 25.33038 31057 ft 497 kts 116°
2026-05-07 23:49 44.78414 25.41912 31049 ft 496 kts 116°
2026-05-07 23:49 44.75589 25.50700 31054 ft 495 kts 116°
2026-05-07 23:50 44.72739 25.59537 31047 ft 494 kts 116°
2026-05-07 23:50 44.69892 25.68332 31046 ft 494 kts 116°
2026-05-07 23:51 44.67041 25.77113 31047 ft 493 kts 117°
2026-05-07 23:51 44.64204 25.85820 31047 ft 492 kts 117°
2026-05-07 23:52 44.61342 25.94577 31048 ft 492 kts 117°
2026-05-07 23:52 44.58479 26.03304 31052 ft 492 kts 117°
2026-05-07 23:53 44.55603 26.12045 31044 ft 493 kts 117°
2026-05-07 23:53 44.52722 26.20769 31049 ft 493 kts 117°
2026-05-07 23:54 44.49854 26.29428 31044 ft 493 kts 117°
2026-05-07 23:54 44.46959 26.38139 31047 ft 493 kts 117°
2026-05-07 23:55 44.44058 26.46840 31042 ft 493 kts 117°
2026-05-07 23:55 44.41143 26.55555 31054 ft 493 kts 117°
2026-05-07 23:56 44.38244 26.64192 31051 ft 493 kts 117°
2026-05-07 23:56 44.35323 26.72869 31052 ft 493 kts 117°
2026-05-07 23:57 44.32389 26.81556 31057 ft 493 kts 117°
2026-05-07 23:57 44.29458 26.90204 31057 ft 493 kts 117°
2026-05-07 23:58 44.26519 26.98850 31056 ft 493 kts 117°
2026-05-07 23:58 44.23570 27.07497 31051 ft 493 kts 117°
2026-05-07 23:59 44.20633 27.16079 31059 ft 493 kts 117°
2026-05-07 23:59 44.17670 27.24712 31060 ft 493 kts 117°
2026-05-08 00:00 44.14697 27.33345 31065 ft 494 kts 117°
2026-05-08 00:00 44.11713 27.41983 31066 ft 495 kts 117°
2026-05-08 00:01 44.08745 27.50548 31074 ft 495 kts 117°
2026-05-08 00:01 44.05745 27.59179 31078 ft 496 kts 117°
2026-05-08 00:02 44.02725 27.67838 31076 ft 497 kts 117°
2026-05-08 00:02 43.99701 27.76482 31082 ft 498 kts 117°
2026-05-08 00:03 43.96685 27.85076 31087 ft 498 kts 117°
2026-05-08 00:03 43.93645 27.93712 31094 ft 498 kts 117°
2026-05-08 00:04 43.90592 28.02355 31098 ft 498 kts 117°
2026-05-08 00:04 43.87529 28.10999 31102 ft 499 kts 117°
2026-05-08 00:05 43.84484 28.19568 31106 ft 499 kts 117°
2026-05-08 00:05 43.81408 28.28198 31105 ft 499 kts 117°
2026-05-08 00:06 43.78320 28.36833 31106 ft 499 kts 117°
2026-05-08 00:06 43.75230 28.45453 31101 ft 500 kts 117°
2026-05-08 00:07 43.71936 28.53864 31105 ft 499 kts 123°
2026-05-08 00:07 43.68167 28.61952 31109 ft 500 kts 123°
2026-05-08 00:08 43.64382 28.70036 31116 ft 501 kts 123°
2026-05-08 00:08 43.60673 28.78014 31103 ft 502 kts 123°
2026-05-08 00:09 43.56925 28.86093 31112 ft 502 kts 123°
2026-05-08 00:09 43.53150 28.94214 31109 ft 503 kts 123°
2026-05-08 00:10 43.49362 29.02336 31112 ft 503 kts 123°
2026-05-08 00:10 43.45596 29.10385 31114 ft 503 kts 123°
2026-05-08 00:11 43.41793 29.18489 31115 ft 504 kts 123°
2026-05-08 00:11 43.37978 29.26599 31113 ft 504 kts 123°
2026-05-08 00:12 43.34160 29.34693 31113 ft 504 kts 123°
2026-05-08 00:12 43.30332 29.42783 31110 ft 505 kts 123°
2026-05-08 00:13 43.26514 29.50833 31119 ft 506 kts 123°
2026-05-08 00:13 43.22659 29.58938 31118 ft 507 kts 123°
2026-05-08 00:14 43.18797 29.67035 31115 ft 508 kts 123°
2026-05-08 00:14 43.14917 29.75147 31114 ft 508 kts 123°
2026-05-08 00:15 43.11045 29.83222 31109 ft 508 kts 123°
2026-05-08 00:15 43.07163 29.91295 31123 ft 507 kts 123°
2026-05-08 00:16 43.03303 29.99297 31116 ft 507 kts 123°
2026-05-08 00:16 42.99414 30.07342 31121 ft 507 kts 123°
2026-05-08 00:17 42.95518 30.15379 31120 ft 507 kts 123°
2026-05-08 00:17 42.91679 30.23275 31115 ft 508 kts 123°
2026-05-08 00:18 42.87756 30.31325 31127 ft 510 kts 123°
2026-05-08 00:18 42.83818 30.39385 31125 ft 511 kts 123°
2026-05-08 00:19 42.79889 30.47407 31125 ft 512 kts 123°
2026-05-08 00:19 42.76010 30.55572 31120 ft 513 kts 116°
2026-05-08 00:20 42.73444 30.64589 31132 ft 510 kts 102°
2026-05-08 00:20 42.72308 30.74071 31145 ft 508 kts 94°
2026-05-08 00:21 42.71417 30.83614 31132 ft 509 kts 95°
2026-05-08 00:21 42.70478 30.93112 31125 ft 510 kts 95°
2026-05-08 00:22 42.69493 31.02658 31125 ft 510 kts 95°
2026-05-08 00:22 42.68491 31.12217 31131 ft 509 kts 95°
2026-05-08 00:23 42.67486 31.21757 31126 ft 509 kts 95°
2026-05-08 00:23 42.66475 31.31286 31130 ft 509 kts 95°
2026-05-08 00:24 42.65459 31.40794 31141 ft 508 kts 95°
2026-05-08 00:24 42.64441 31.50242 31139 ft 508 kts 95°
2026-05-08 00:25 42.63409 31.59743 31126 ft 508 kts 95°
2026-05-08 00:25 42.62371 31.69218 31129 ft 507 kts 95°
2026-05-08 00:26 42.61331 31.78654 31127 ft 507 kts 95°
2026-05-08 00:26 42.60460 31.86487 31142 ft 507 kts 95°
2026-05-08 00:27 42.59231 31.97482 31128 ft 507 kts 95°
2026-05-08 00:27 42.58176 32.06936 31128 ft 506 kts 95°
2026-05-08 00:28 42.57290 32.14791 31128 ft 507 kts 95°
2026-05-08 00:28 42.56202 32.24254 31137 ft 507 kts 95°
2026-05-08 00:29 42.55107 32.33705 31124 ft 506 kts 95°
2026-05-08 00:29 42.54009 32.43137 31144 ft 506 kts 95°
2026-05-08 00:30 42.52905 32.52564 31127 ft 506 kts 95°
2026-05-08 00:30 42.51799 32.61941 31129 ft 506 kts 95°
2026-05-08 00:31 42.50678 32.71371 31122 ft 506 kts 95°
2026-05-08 00:31 42.49551 32.80788 31123 ft 506 kts 95°
2026-05-08 00:32 42.48415 32.90209 31127 ft 506 kts 95°
2026-05-08 00:32 42.47278 32.99570 31127 ft 506 kts 96°
2026-05-08 00:33 42.46129 33.08984 31123 ft 507 kts 96°
2026-05-08 00:33 42.44966 33.18418 31123 ft 507 kts 96°
2026-05-08 00:34 42.43795 33.27829 31143 ft 507 kts 96°
2026-05-08 00:34 42.42617 33.37259 31129 ft 508 kts 96°
2026-05-08 00:35 42.41430 33.46679 31143 ft 508 kts 96°
2026-05-08 00:35 42.40247 33.56008 31125 ft 507 kts 96°
2026-05-08 00:36 42.39055 33.65348 31142 ft 506 kts 96°
2026-05-08 00:36 42.37853 33.74711 31128 ft 505 kts 96°
2026-05-08 00:37 42.36645 33.84067 31124 ft 503 kts 96°
2026-05-08 00:38 42.34827 33.98030 31122 ft 502 kts 96°
2026-05-08 00:38 42.33612 34.07311 31133 ft 501 kts 97°
2026-05-08 00:39 42.32398 34.16527 31128 ft 501 kts 97°
2026-05-08 00:39 42.31167 34.25812 31128 ft 500 kts 97°
2026-05-08 00:40 42.29933 34.35070 31140 ft 500 kts 97°
2026-05-08 00:40 42.28697 34.44261 31130 ft 500 kts 97°
2026-05-08 00:41 42.27448 34.53477 31138 ft 498 kts 98°
2026-05-08 00:41 42.26199 34.62638 31133 ft 495 kts 98°
2026-05-08 00:42 42.24950 34.71756 31139 ft 492 kts 98°
2026-05-08 00:42 42.23700 34.80827 31127 ft 490 kts 98°
2026-05-08 00:43 42.22440 34.89871 31147 ft 490 kts 98°
2026-05-08 00:43 42.21182 34.98849 31148 ft 490 kts 98°
2026-05-08 00:44 42.19906 35.07904 31156 ft 491 kts 98°
2026-05-08 00:44 42.18625 35.16953 31147 ft 491 kts 98°
2026-05-08 00:45 42.17333 35.26020 31146 ft 491 kts 98°
2026-05-08 00:45 42.16039 35.35055 31153 ft 491 kts 98°
2026-05-08 00:46 42.14744 35.44037 31151 ft 491 kts 98°
2026-05-08 00:46 42.13437 35.53060 31156 ft 489 kts 99°
2026-05-08 00:47 42.12130 35.62034 31151 ft 487 kts 99°
2026-05-08 00:47 42.10824 35.70960 31154 ft 485 kts 99°
2026-05-08 00:48 42.09512 35.79876 31168 ft 484 kts 99°
2026-05-08 00:48 42.08197 35.88765 31158 ft 484 kts 99°
2026-05-08 00:49 42.06883 35.97596 31162 ft 484 kts 99°
2026-05-08 00:49 42.05553 36.06483 31169 ft 484 kts 99°
2026-05-08 00:50 42.04213 36.15387 31177 ft 485 kts 99°
2026-05-08 00:50 42.02869 36.24270 31172 ft 485 kts 99°
2026-05-08 00:51 42.01522 36.33120 31171 ft 486 kts 99°
2026-05-08 00:51 42.00159 36.42029 31168 ft 486 kts 99°
2026-05-08 00:52 41.98789 36.50931 31187 ft 485 kts 99°
2026-05-08 00:52 41.97418 36.59794 31167 ft 483 kts 99°
2026-05-08 00:53 41.96049 36.68597 31178 ft 480 kts 99°
2026-05-08 00:53 41.94688 36.77303 31177 ft 479 kts 99°
2026-05-08 00:54 41.93314 36.86052 31176 ft 478 kts 99°
2026-05-08 00:54 41.91936 36.94788 31180 ft 477 kts 100°
2026-05-08 00:55 41.90499 37.03515 31177 ft 479 kts 103°
2026-05-08 00:55 41.88170 37.11902 31200 ft 481 kts 111°
2026-05-08 00:56 41.85514 37.20121 31185 ft 483 kts 111°
2026-05-08 00:56 41.82868 37.28415 31181 ft 483 kts 111°
2026-05-08 00:57 41.80238 37.36729 31185 ft 484 kts 111°
2026-05-08 00:57 41.77618 37.45000 31191 ft 485 kts 111°
2026-05-08 00:58 41.74977 37.53304 31185 ft 485 kts 111°
2026-05-08 00:58 41.72322 37.61627 31186 ft 486 kts 111°
2026-05-08 00:59 41.69658 37.69945 31185 ft 486 kts 111°
2026-05-08 00:59 41.66991 37.78244 31190 ft 485 kts 111°
2026-05-08 01:00 41.64318 37.86542 31184 ft 485 kts 111°
2026-05-08 01:00 41.61660 37.94773 31187 ft 484 kts 111°
2026-05-08 01:01 41.58985 38.03034 31192 ft 484 kts 111°
2026-05-08 01:01 41.56304 38.11286 31191 ft 484 kts 111°
2026-05-08 01:02 41.53611 38.19549 31185 ft 485 kts 111°
2026-05-08 01:02 41.50928 38.27758 31187 ft 485 kts 111°
2026-05-08 01:03 41.48219 38.36022 31182 ft 487 kts 111°
2026-05-08 01:03 41.45493 38.44311 31185 ft 488 kts 111°
2026-05-08 01:04 41.42765 38.52579 31187 ft 486 kts 111°
2026-05-08 01:04 41.40040 38.60818 31189 ft 484 kts 111°
2026-05-08 01:05 41.37341 38.68956 31175 ft 481 kts 111°
2026-05-08 01:05 41.34633 38.77100 31179 ft 480 kts 111°
2026-05-08 01:06 41.31945 38.85236 31201 ft 479 kts 111°
2026-05-08 01:06 41.29288 38.93387 31177 ft 480 kts 111°
2026-05-08 01:07 41.26635 39.01492 31190 ft 481 kts 111°
2026-05-08 01:07 41.23954 39.09640 31194 ft 482 kts 111°
2026-05-08 01:08 41.21255 39.17813 31191 ft 483 kts 111°
2026-05-08 01:08 41.18451 39.25930 31195 ft 484 kts 112°
2026-05-08 01:09 41.15592 39.34029 31190 ft 484 kts 112°
2026-05-08 01:09 41.12742 39.42128 31192 ft 484 kts 112°
2026-05-08 01:10 41.09916 39.50175 31188 ft 483 kts 112°
2026-05-08 01:10 41.07072 39.58251 31185 ft 483 kts 112°
2026-05-08 01:11 41.04223 39.66322 31194 ft 483 kts 112°
2026-05-08 01:11 41.01384 39.74414 31191 ft 484 kts 110°
2026-05-08 01:12 40.99589 39.82947 31189 ft 481 kts 96°
2026-05-08 01:12 40.99153 39.91691 31191 ft 479 kts 89°
2026-05-08 01:13 40.99014 40.00534 31187 ft 480 kts 89°
2026-05-08 01:13 40.98813 40.09387 31192 ft 482 kts 90°
2026-05-08 01:14 40.98585 40.18265 31200 ft 482 kts 90°
2026-05-08 01:14 40.98349 40.27129 31189 ft 481 kts 90°
2026-05-08 01:15 40.98145 40.34477 31191 ft 480 kts 90°
2026-05-08 01:15 40.97896 40.43292 31189 ft 478 kts 90°
2026-05-08 01:16 40.97642 40.52083 31197 ft 479 kts 90°
2026-05-08 01:16 40.97379 40.60916 31193 ft 480 kts 90°
2026-05-08 01:17 40.97110 40.69761 31187 ft 481 kts 90°
2026-05-08 01:17 40.96834 40.78585 31187 ft 483 kts 90°
2026-05-08 01:18 40.96552 40.87466 31206 ft 484 kts 90°
2026-05-08 01:18 40.96259 40.96374 31191 ft 485 kts 91°
2026-05-08 01:19 40.95956 41.05317 31193 ft 485 kts 91°
2026-05-08 01:19 40.95648 41.14241 31190 ft 485 kts 91°
2026-05-08 01:20 40.95337 41.23109 31212 ft 485 kts 91°
2026-05-08 01:20 40.95017 41.32000 31219 ft 483 kts 91°
2026-05-08 01:21 40.94691 41.40892 31199 ft 483 kts 91°
2026-05-08 01:21 40.94359 41.49772 31216 ft 483 kts 91°
2026-05-08 01:22 40.94021 41.58601 31218 ft 483 kts 91°
2026-05-08 01:22 40.93674 41.67480 31223 ft 483 kts 91°
2026-05-08 01:23 40.93321 41.76354 31236 ft 483 kts 92°
2026-05-08 01:23 40.92961 41.85239 31232 ft 483 kts 92°
2026-05-08 01:24 40.92597 41.94053 31246 ft 483 kts 92°
2026-05-08 01:24 40.92224 42.02920 31238 ft 482 kts 92°
2026-05-08 01:25 40.91844 42.11775 31242 ft 482 kts 92°
2026-05-08 01:25 40.91458 42.20639 31248 ft 483 kts 93°
2026-05-08 01:26 40.91066 42.29465 31247 ft 484 kts 93°
2026-05-08 01:26 40.90663 42.38364 31251 ft 485 kts 93°
2026-05-08 01:27 40.90254 42.47274 31249 ft 485 kts 93°
2026-05-08 01:27 40.89841 42.56130 31240 ft 485 kts 93°
2026-05-08 01:28 40.89418 42.65025 31253 ft 485 kts 94°
2026-05-08 01:28 40.88989 42.73922 31251 ft 485 kts 94°
2026-05-08 01:29 40.88552 42.82822 31254 ft 485 kts 94°
2026-05-08 01:29 40.88109 42.91732 31254 ft 485 kts 94°
2026-05-08 01:30 40.87658 43.00642 31243 ft 487 kts 94°
2026-05-08 01:30 40.87199 43.09577 31246 ft 488 kts 94°
2026-05-08 01:31 40.86734 43.18491 31245 ft 490 kts 94°
2026-05-08 01:31 40.86259 43.27473 31227 ft 490 kts 94°
2026-05-08 01:32 40.85776 43.36473 31232 ft 490 kts 94°
2026-05-08 01:32 40.85286 43.45457 31226 ft 490 kts 94°
2026-05-08 01:33 40.84791 43.54430 31221 ft 489 kts 95°
2026-05-08 01:33 40.84290 43.63394 31222 ft 489 kts 95°
2026-05-08 01:34 40.83824 43.72289 31215 ft 488 kts 93°
2026-05-08 01:34 40.83584 43.81257 31216 ft 490 kts 93°
2026-05-08 01:35 40.83302 43.90269 31223 ft 492 kts 93°
2026-05-08 01:35 40.82991 43.99333 31220 ft 494 kts 94°
2026-05-08 01:36 40.82676 44.08364 31213 ft 496 kts 94°
2026-05-08 01:36 40.82354 44.17465 31210 ft 496 kts 94°
2026-05-08 01:37 40.82026 44.26590 31197 ft 497 kts 94°
2026-05-08 01:37 40.81694 44.35581 31201 ft 497 kts 94°
2026-05-08 01:38 40.81357 44.44563 31197 ft 497 kts 94°
2026-05-08 01:38 40.81008 44.53681 31214 ft 497 kts 95°
2026-05-08 01:39 40.80652 44.62803 31178 ft 498 kts 95°
2026-05-08 01:39 40.80285 44.71937 31190 ft 498 kts 96°
2026-05-08 01:40 40.79911 44.81065 31205 ft 499 kts 96°
2026-05-08 01:40 40.79531 44.90238 31187 ft 500 kts 96°
2026-05-08 01:41 40.79143 44.99409 31179 ft 501 kts 96°
2026-05-08 01:41 40.78752 45.08552 31197 ft 502 kts 97°
2026-05-08 01:42 40.78344 45.17775 31191 ft 504 kts 97°
2026-05-08 01:42 40.77928 45.27038 31195 ft 506 kts 97°
2026-05-08 01:43 40.77506 45.36328 31189 ft 507 kts 97°
2026-05-08 01:43 40.77079 45.45574 31192 ft 508 kts 97°
2026-05-08 01:44 40.76512 45.54865 31188 ft 507 kts 101°
2026-05-08 01:44 40.75666 45.64130 31182 ft 509 kts 102°
2026-05-08 01:45 40.74785 45.73415 31184 ft 511 kts 102°
2026-05-08 01:45 40.73922 45.82690 31172 ft 513 kts 102°
2026-05-08 01:46 40.73062 45.92018 31163 ft 513 kts 102°
2026-05-08 01:46 40.72203 46.01304 31156 ft 513 kts 102°
2026-05-08 01:47 40.71326 46.10663 31151 ft 514 kts 102°
2026-05-08 01:47 40.70449 46.19948 31157 ft 513 kts 102°
2026-05-08 01:48 40.69107 46.33957 31146 ft 513 kts 103°
2026-05-08 01:48 40.68203 46.43297 31155 ft 514 kts 103°
2026-05-08 01:49 40.67290 46.52654 31159 ft 515 kts 103°
2026-05-08 01:49 40.66369 46.62023 31155 ft 516 kts 104°
2026-05-08 01:50 40.65444 46.71355 31152 ft 516 kts 104°
2026-05-08 01:50 40.64502 46.80762 31158 ft 518 kts 104°
2026-05-08 01:51 40.63551 46.90183 31160 ft 519 kts 104°
2026-05-08 01:51 40.62594 46.99600 31156 ft 520 kts 104°
2026-05-08 01:52 40.61627 47.09040 31140 ft 520 kts 105°
2026-05-08 01:52 40.60672 47.18473 31149 ft 522 kts 103°
2026-05-08 01:53 40.60315 47.28102 31164 ft 529 kts 98°
2026-05-08 01:53 40.60100 47.37749 31162 ft 530 kts 98°
2026-05-08 01:54 40.59843 47.47454 31161 ft 531 kts 99°
2026-05-08 01:54 40.59551 47.57167 31157 ft 530 kts 99°
2026-05-08 01:55 40.59248 47.66867 31146 ft 530 kts 99°
2026-05-08 01:55 40.58942 47.76500 31152 ft 530 kts 99°
2026-05-08 01:56 40.58627 47.86186 31151 ft 530 kts 99°
2026-05-08 01:56 40.58333 47.95891 31135 ft 532 kts 97°
2026-05-08 01:57 40.58610 48.05665 31145 ft 535 kts 94°
2026-05-08 01:57 40.58915 48.15454 31161 ft 535 kts 94°
2026-05-08 01:58 40.59170 48.25243 31161 ft 535 kts 94°
2026-05-08 01:58 40.59417 48.35022 31163 ft 535 kts 94°
2026-05-08 01:59 40.59661 48.44767 31150 ft 536 kts 94°
2026-05-08 01:59 40.59896 48.54570 31142 ft 535 kts 94°
2026-05-08 02:00 40.60126 48.64358 31151 ft 535 kts 94°
2026-05-08 02:00 40.60345 48.74144 31161 ft 535 kts 95°
2026-05-08 02:01 40.60553 48.83952 31155 ft 536 kts 95°
2026-05-08 02:01 40.60758 48.93761 31138 ft 536 kts 94°
2026-05-08 02:02 40.60953 49.03563 31116 ft 535 kts 95°
2026-05-08 02:02 40.61139 49.13313 31127 ft 535 kts 95°
2026-05-08 02:03 40.60765 49.22991 31118 ft 525 kts 106°
2026-05-08 02:03 40.59274 49.32312 31123 ft 519 kts 110°
2026-05-08 02:04 40.58005 49.40042 31104 ft 521 kts 109°
2026-05-08 02:04 40.56290 49.50895 31098 ft 520 kts 109°
2026-05-08 02:05 40.55017 49.58632 31106 ft 521 kts 109°
2026-05-08 02:05 40.53464 49.67952 31100 ft 522 kts 109°
2026-05-08 02:06 40.51911 49.77278 31098 ft 522 kts 109°
2026-05-08 02:06 40.50355 49.86607 31092 ft 522 kts 109°
2026-05-08 02:07 40.48799 49.95890 31115 ft 522 kts 109°
2026-05-08 02:07 40.47220 50.05263 31100 ft 522 kts 109°
2026-05-08 02:08 40.45853 50.14607 31069 ft 525 kts 106°
2026-05-08 02:08 40.44663 50.24058 31097 ft 525 kts 105°
2026-05-08 02:09 40.43446 50.33497 31099 ft 524 kts 106°
2026-05-08 02:09 40.42180 50.42921 31099 ft 523 kts 107°
2026-05-08 02:10 40.40901 50.52267 31093 ft 523 kts 107°
2026-05-08 02:10 40.39665 50.61251 31109 ft 522 kts 106°
2026-05-08 02:11 40.38367 50.70650 31112 ft 522 kts 106°
2026-05-08 02:11 40.37065 50.80028 31118 ft 523 kts 107°
2026-05-08 02:12 40.35754 50.89410 31123 ft 523 kts 107°
2026-05-08 02:12 40.34444 50.98736 31123 ft 523 kts 106°
2026-05-08 02:13 40.33117 51.08118 31129 ft 523 kts 107°
2026-05-08 02:13 40.31817 51.17251 31128 ft 523 kts 107°
2026-05-08 02:14 40.30475 51.26626 31126 ft 523 kts 107°
2026-05-08 02:14 40.29136 51.35933 31121 ft 522 kts 106°
2026-05-08 02:15 40.27783 51.45282 31127 ft 522 kts 107°
2026-05-08 02:15 40.26421 51.54626 31129 ft 521 kts 107°
2026-05-08 02:16 40.25058 51.63910 31125 ft 521 kts 107°
2026-05-08 02:16 40.23684 51.73228 31129 ft 521 kts 107°
2026-05-08 02:17 40.22302 51.82552 31129 ft 521 kts 107°
2026-05-08 02:17 40.20913 51.91865 31129 ft 521 kts 107°
2026-05-08 02:18 40.19526 52.01121 31126 ft 521 kts 107°
2026-05-08 02:18 40.18120 52.10442 31121 ft 521 kts 107°
2026-05-08 02:19 40.16710 52.19735 31119 ft 521 kts 107°
2026-05-08 02:19 40.15292 52.29027 31128 ft 521 kts 107°
2026-05-08 02:20 40.13867 52.38322 31125 ft 522 kts 107°
2026-05-08 02:20 40.12430 52.47636 31115 ft 522 kts 107°
2026-05-08 02:21 40.10996 52.56874 31126 ft 523 kts 107°
2026-05-08 02:21 40.09543 52.66191 31136 ft 523 kts 107°
2026-05-08 02:22 40.08082 52.75509 31120 ft 523 kts 107°
2026-05-08 02:22 40.06613 52.84828 31119 ft 524 kts 107°
2026-05-08 02:23 40.05134 52.94164 31125 ft 525 kts 107°
2026-05-08 02:23 40.03477 53.03355 31123 ft 520 kts 114°
2026-05-08 02:24 40.00981 53.12179 31134 ft 517 kts 117°
2026-05-08 02:24 39.98420 53.20953 31121 ft 518 kts 118°
2026-05-08 02:25 39.95881 53.29765 31130 ft 519 kts 117°
2026-05-08 02:25 39.93356 53.38594 31122 ft 520 kts 117°
2026-05-08 02:26 39.90845 53.47372 31096 ft 521 kts 118°
2026-05-08 02:26 39.88306 53.56204 31110 ft 521 kts 118°
2026-05-08 02:27 39.85753 53.65048 31118 ft 522 kts 118°
2026-05-08 02:27 39.83192 53.73885 31086 ft 522 kts 118°
2026-05-08 02:28 39.80620 53.82736 31114 ft 523 kts 119°
2026-05-08 02:28 39.78035 53.91597 31117 ft 524 kts 119°
2026-05-08 02:29 39.75456 54.00410 31109 ft 525 kts 119°
2026-05-08 02:29 39.72849 54.09287 31103 ft 526 kts 119°
2026-05-08 02:30 39.70232 54.18172 31117 ft 527 kts 119°
2026-05-08 02:30 39.67598 54.27084 31125 ft 529 kts 119°
2026-05-08 02:31 39.64953 54.36004 31091 ft 530 kts 120°
2026-05-08 02:31 39.62305 54.44900 31119 ft 532 kts 120°
2026-05-08 02:32 39.59634 54.53847 31119 ft 533 kts 120°
2026-05-08 02:32 39.56952 54.62805 31101 ft 532 kts 120°
2026-05-08 02:33 39.54264 54.71752 31106 ft 532 kts 120°
2026-05-08 02:33 39.51568 54.80691 31110 ft 533 kts 120°
2026-05-08 02:34 39.48875 54.89591 31121 ft 533 kts 120°
2026-05-08 02:34 39.46157 54.98547 31120 ft 534 kts 120°
2026-05-08 02:35 39.43425 55.07520 31120 ft 535 kts 120°
2026-05-08 02:35 39.40689 55.16474 31115 ft 535 kts 120°
2026-05-08 02:36 39.37964 55.25367 31103 ft 536 kts 120°
2026-05-08 02:36 39.35204 55.34341 31103 ft 536 kts 120°
2026-05-08 02:37 39.32437 55.43310 31117 ft 537 kts 120°
2026-05-08 02:37 39.29675 55.52238 31106 ft 538 kts 120°
2026-05-08 02:38 39.26691 55.61076 31119 ft 533 kts 125°
2026-05-08 02:38 39.23364 55.69651 31119 ft 534 kts 125°
2026-05-08 02:39 39.20023 55.78243 31092 ft 536 kts 125°
2026-05-08 02:39 39.16714 55.86818 31105 ft 537 kts 125°
2026-05-08 02:40 39.13452 55.95284 31114 ft 538 kts 125°
2026-05-08 02:40 39.10113 56.03919 31083 ft 539 kts 125°
2026-05-08 02:41 39.06765 56.12544 31102 ft 538 kts 125°
2026-05-08 02:41 39.03410 56.21166 31109 ft 538 kts 125°
2026-05-08 02:42 39.00082 56.29792 31103 ft 541 kts 123°
2026-05-08 02:42 38.97421 56.38926 31105 ft 548 kts 116°
2026-05-08 02:43 38.94952 56.48187 31100 ft 548 kts 116°
2026-05-08 02:43 38.92464 56.57364 31099 ft 547 kts 117°
2026-05-08 02:44 38.89915 56.66604 31089 ft 547 kts 116°
2026-05-08 02:44 38.87358 56.75799 31090 ft 547 kts 117°
2026-05-08 02:45 38.84807 56.84957 31096 ft 548 kts 116°
2026-05-08 02:45 38.82235 56.94165 31103 ft 548 kts 116°
2026-05-08 02:46 38.79658 57.03365 31085 ft 548 kts 116°
2026-05-08 02:46 38.77090 57.12501 31079 ft 548 kts 116°
2026-05-08 02:47 38.74495 57.21693 31091 ft 547 kts 116°
2026-05-08 02:47 38.71896 57.30871 31064 ft 547 kts 116°
2026-05-08 02:48 38.69292 57.40034 31077 ft 547 kts 116°
2026-05-08 02:48 38.66688 57.49167 31078 ft 547 kts 116°
2026-05-08 02:49 38.64110 57.58183 31078 ft 547 kts 116°
2026-05-08 02:49 38.61480 57.67252 31067 ft 545 kts 118°
2026-05-08 02:50 38.58437 57.76081 31075 ft 542 kts 120°
2026-05-08 02:50 38.55312 57.84869 31069 ft 543 kts 120°
2026-05-08 02:51 38.52203 57.93679 31064 ft 543 kts 120°
2026-05-08 02:51 38.49106 58.02490 31070 ft 544 kts 120°
2026-05-08 02:52 38.46016 58.11260 31067 ft 544 kts 120°
2026-05-08 02:52 38.42899 58.20074 31057 ft 544 kts 120°
2026-05-08 02:53 38.40360 58.27425 31054 ft 546 kts 116°
2026-05-08 02:53 38.38176 58.36773 31061 ft 552 kts 108°
2026-05-08 02:54 38.36362 58.46300 31062 ft 552 kts 108°
2026-05-08 02:54 38.34513 58.55778 31058 ft 551 kts 108°
2026-05-08 02:55 38.31677 58.69896 31054 ft 549 kts 109°
2026-05-08 02:56 38.29764 58.79319 31056 ft 549 kts 109°
2026-05-08 02:56 38.27850 58.88731 31059 ft 548 kts 109°
2026-05-08 02:57 38.25932 58.98126 31056 ft 548 kts 109°
2026-05-08 02:57 38.24013 59.07492 31047 ft 546 kts 109°
2026-05-08 02:58 38.22102 59.16777 31061 ft 545 kts 109°
2026-05-08 02:58 38.20171 59.26113 31050 ft 545 kts 109°
2026-05-08 02:59 38.18233 59.35439 31043 ft 546 kts 108°
2026-05-08 02:59 38.16297 59.44717 31061 ft 546 kts 108°
2026-05-08 03:00 38.14339 59.54069 31054 ft 546 kts 108°
2026-05-08 03:00 38.12373 59.63412 31049 ft 546 kts 108°
2026-05-08 03:01 38.10416 59.72672 31053 ft 547 kts 108°
2026-05-08 03:01 38.08433 59.82015 31037 ft 547 kts 108°
2026-05-08 03:02 38.06447 59.91336 31036 ft 546 kts 108°
2026-05-08 03:02 38.04459 60.00631 31043 ft 546 kts 108°
2026-05-08 03:03 38.02460 60.09914 31045 ft 545 kts 109°
2026-05-08 03:03 37.99446 60.18618 31036 ft 536 kts 126°
2026-05-08 03:04 37.95010 60.26041 31041 ft 527 kts 139°
2026-05-08 03:04 37.89950 60.32794 31048 ft 530 kts 139°
2026-05-08 03:05 37.84905 60.39643 31050 ft 532 kts 138°
2026-05-08 03:05 37.79894 60.46537 31033 ft 533 kts 137°
2026-05-08 03:06 37.74859 60.53442 31035 ft 534 kts 138°
2026-05-08 03:06 37.69709 60.60176 31039 ft 532 kts 140°
2026-05-08 03:07 37.64499 60.66754 31049 ft 532 kts 140°
2026-05-08 03:07 37.59418 60.73189 31045 ft 531 kts 140°
2026-05-08 03:08 37.54206 60.79828 31036 ft 531 kts 140°
2026-05-08 03:08 37.49011 60.86448 31042 ft 531 kts 139°
2026-05-08 03:09 37.43842 60.93016 31048 ft 531 kts 140°
2026-05-08 03:09 37.38633 60.99617 31046 ft 531 kts 140°
2026-05-08 03:10 37.33418 61.06211 31045 ft 531 kts 139°
2026-05-08 03:10 37.28194 61.12805 31048 ft 532 kts 139°
2026-05-08 03:11 37.22964 61.19395 31051 ft 533 kts 139°
2026-05-08 03:11 37.17752 61.25942 31040 ft 533 kts 139°
2026-05-08 03:12 37.12505 61.32506 31047 ft 533 kts 139°
2026-05-08 03:12 37.07253 61.39068 31041 ft 533 kts 139°
2026-05-08 03:13 37.01994 61.45627 31044 ft 533 kts 139°
2026-05-08 03:13 36.96741 61.52167 31050 ft 533 kts 139°
2026-05-08 03:14 36.91520 61.58655 31051 ft 533 kts 139°
2026-05-08 03:14 36.86255 61.65181 31037 ft 532 kts 139°
2026-05-08 03:15 36.80989 61.71696 31048 ft 531 kts 139°
2026-05-08 03:15 36.75759 61.78156 31056 ft 531 kts 139°
2026-05-08 03:16 36.70506 61.84634 31051 ft 531 kts 139°
2026-05-08 03:16 36.65293 61.91050 31057 ft 530 kts 139°
2026-05-08 03:17 36.60068 61.97466 31054 ft 530 kts 139°
2026-05-08 03:17 36.54803 62.03919 31052 ft 531 kts 139°
2026-05-08 03:18 36.49542 62.10355 31064 ft 531 kts 139°
2026-05-08 03:18 36.44268 62.16792 31063 ft 531 kts 139°
2026-05-08 03:19 36.38994 62.23217 31055 ft 531 kts 139°
2026-05-08 03:19 36.33735 62.29611 31059 ft 532 kts 139°
2026-05-08 03:20 36.28431 62.36047 31072 ft 533 kts 139°
2026-05-08 03:20 36.23126 62.42470 31047 ft 533 kts 139°
2026-05-08 03:21 36.17816 62.48889 31069 ft 533 kts 139°
2026-05-08 03:21 36.12494 62.55308 31060 ft 534 kts 138°
2026-05-08 03:22 36.07182 62.61701 31068 ft 535 kts 138°
2026-05-08 03:22 36.01841 62.68117 31059 ft 535 kts 138°
2026-05-08 03:23 35.96534 62.74481 31072 ft 535 kts 138°
2026-05-08 03:23 35.91180 62.80887 31075 ft 535 kts 139°
2026-05-08 03:24 35.85836 62.87269 31060 ft 535 kts 138°
2026-05-08 03:24 35.80486 62.93646 31074 ft 534 kts 138°
2026-05-08 03:25 35.75175 62.99963 31078 ft 534 kts 138°
2026-05-08 03:25 35.69821 63.06320 31080 ft 534 kts 138°
2026-05-08 03:26 35.64465 63.12669 31074 ft 534 kts 138°
2026-05-08 03:26 35.59150 63.18990 31074 ft 534 kts 136°
2026-05-08 03:27 35.54381 63.26027 31083 ft 536 kts 128°
2026-05-08 03:27 35.49889 63.33355 31081 ft 536 kts 128°
2026-05-08 03:28 35.45369 63.40624 31085 ft 535 kts 128°
2026-05-08 03:28 35.40845 63.47815 31102 ft 536 kts 128°
2026-05-08 03:29 35.36283 63.55046 31093 ft 536 kts 128°
2026-05-08 03:29 35.31716 63.62282 31101 ft 536 kts 128°
2026-05-08 03:30 35.24875 63.73119 31111 ft 536 kts 128°
2026-05-08 03:31 35.15781 63.87530 31116 ft 537 kts 128°
2026-05-08 03:32 35.08923 63.98353 31121 ft 536 kts 128°
2026-05-08 03:32 35.04347 64.05556 31125 ft 537 kts 128°
2026-05-08 03:33 34.99753 64.12771 31119 ft 537 kts 128°
2026-05-08 03:33 34.95192 64.19922 31121 ft 537 kts 128°
2026-05-08 03:34 34.90583 64.27132 31277 ft 542 kts 128°
2026-05-08 03:34 34.88258 64.30763 31608 ft 542 kts 128°
2026-05-08 03:34 34.85941 64.34379 32007 ft 540 kts 128°
2026-05-08 03:34 34.83631 64.37980 32364 ft 540 kts 128°
2026-05-08 03:35 34.81306 64.41601 32604 ft 541 kts 128°
2026-05-08 03:35 34.79014 64.45168 32842 ft 543 kts 129°
2026-05-08 03:35 34.75008 64.51388 33132 ft 545 kts 129°
2026-05-08 03:36 34.72663 64.55025 33188 ft 544 kts 129°
2026-05-08 03:36 34.67998 64.62250 33180 ft 541 kts 129°
2026-05-08 03:37 34.63389 64.69377 33192 ft 539 kts 129°
2026-05-08 03:37 34.58749 64.76537 33201 ft 539 kts 129°
2026-05-08 03:38 34.54105 64.83688 33203 ft 539 kts 129°
2026-05-08 03:38 34.49452 64.90838 33197 ft 540 kts 129°
2026-05-08 03:39 34.44806 64.97945 33214 ft 541 kts 129°
2026-05-08 03:39 34.40117 65.05093 33214 ft 542 kts 129°
2026-05-08 03:40 34.35420 65.12248 33209 ft 544 kts 129°
2026-05-08 03:40 34.30696 65.19430 33199 ft 544 kts 129°
2026-05-08 03:41 34.25984 65.26580 33206 ft 544 kts 129°
2026-05-08 03:41 34.21256 65.33741 33199 ft 544 kts 129°
2026-05-08 03:42 34.16574 65.40816 33174 ft 543 kts 129°
2026-05-08 03:42 34.11854 65.47939 33192 ft 542 kts 129°
2026-05-08 03:43 34.07129 65.55056 33179 ft 543 kts 129°
2026-05-08 03:43 34.02445 65.62100 33160 ft 544 kts 129°
2026-05-08 03:44 33.97716 65.69209 33153 ft 543 kts 129°
2026-05-08 03:44 33.93000 65.76293 33142 ft 541 kts 129°
2026-05-08 03:45 33.88286 65.83350 33157 ft 541 kts 129°
2026-05-08 03:45 33.83581 65.90379 33151 ft 542 kts 129°
2026-05-08 03:46 33.78848 65.97440 33147 ft 542 kts 129°
2026-05-08 03:46 33.74110 66.04498 33163 ft 543 kts 129°
2026-05-08 03:47 33.69373 66.11534 33131 ft 544 kts 129°
2026-05-08 03:47 33.64605 66.18610 33117 ft 544 kts 129°
2026-05-08 03:48 33.59850 66.25649 33132 ft 541 kts 128°
2026-05-08 03:48 33.55112 66.32649 33114 ft 539 kts 129°
2026-05-08 03:49 33.50407 66.39586 33110 ft 539 kts 129°
2026-05-08 03:49 33.45667 66.46565 33113 ft 539 kts 129°
2026-05-08 03:50 33.40904 66.53533 33108 ft 539 kts 129°
2026-05-08 03:50 33.36166 66.60436 33133 ft 540 kts 129°
2026-05-08 03:51 33.31391 66.67392 33149 ft 542 kts 129°
2026-05-08 03:51 33.26602 66.74350 33136 ft 542 kts 129°
2026-05-08 03:52 33.21814 66.81296 33146 ft 541 kts 129°
2026-05-08 03:52 33.17431 66.87649 33151 ft 541 kts 129°
2026-05-08 03:53 33.12622 66.94603 33160 ft 542 kts 128°
2026-05-08 03:53 33.07844 67.01506 33120 ft 542 kts 129°
2026-05-08 03:54 33.03039 67.08429 33117 ft 541 kts 128°
2026-05-08 03:54 32.98213 67.15355 33133 ft 543 kts 129°
2026-05-08 03:55 32.93366 67.22313 33108 ft 546 kts 129°
2026-05-08 03:55 32.88529 67.29244 33075 ft 548 kts 129°
2026-05-08 03:56 32.83656 67.36215 33069 ft 545 kts 129°
2026-05-08 03:56 32.78798 67.43147 33054 ft 544 kts 129°
2026-05-08 03:57 32.73887 67.49985 33044 ft 543 kts 130°
2026-05-08 03:57 32.68857 67.56670 33067 ft 542 kts 131°
2026-05-08 03:58 32.63856 67.63320 33036 ft 541 kts 130°
2026-05-08 03:58 32.58875 67.69991 33051 ft 540 kts 130°
2026-05-08 03:59 32.53923 67.76622 33055 ft 539 kts 130°
2026-05-08 03:59 32.48942 67.83293 33047 ft 539 kts 129°
2026-05-08 04:00 32.44148 67.90117 33035 ft 539 kts 128°
2026-05-08 04:00 32.39415 67.97030 33055 ft 540 kts 128°
2026-05-08 04:01 32.34678 68.03880 33057 ft 541 kts 128°
2026-05-08 04:01 32.29921 68.10691 33047 ft 541 kts 129°
2026-05-08 04:02 32.25112 68.17547 33040 ft 542 kts 129°
2026-05-08 04:02 32.20292 68.24410 33040 ft 542 kts 128°
2026-05-08 04:03 32.15467 68.31272 33034 ft 543 kts 129°
2026-05-08 04:03 32.08245 68.41522 33020 ft 543 kts 129°
2026-05-08 04:04 32.03417 68.48358 33032 ft 542 kts 129°
2026-05-08 04:04 31.98588 68.55183 33033 ft 542 kts 128°
2026-05-08 04:05 31.93748 68.62011 33019 ft 542 kts 129°
2026-05-08 04:05 31.88932 68.68795 33008 ft 542 kts 129°
2026-05-08 04:06 31.84100 68.75586 32986 ft 541 kts 129°
2026-05-08 04:06 31.79266 68.82370 33001 ft 541 kts 129°
2026-05-08 04:07 31.74409 68.89173 33008 ft 542 kts 129°
2026-05-08 04:07 31.69583 68.95927 32995 ft 542 kts 129°
2026-05-08 04:08 31.64740 69.02732 32984 ft 541 kts 128°
2026-05-08 04:08 31.60084 69.09669 32981 ft 541 kts 126°
2026-05-08 04:09 31.55453 69.16640 32979 ft 542 kts 127°
2026-05-08 04:09 31.50799 69.23558 32989 ft 544 kts 127°
2026-05-08 04:10 31.46095 69.30506 32971 ft 545 kts 127°
2026-05-08 04:10 31.41384 69.37457 32963 ft 545 kts 127°
2026-05-08 04:11 31.36210 69.43870 32950 ft 543 kts 145°
2026-05-08 04:11 31.32972 69.46145 32964 ft 541 kts 156°
2026-05-08 04:11 31.29468 69.47738 32970 ft 538 kts 168°
2026-05-08 04:12 31.22170 69.49461 32967 ft 535 kts 172°
2026-05-08 04:12 31.14844 69.51165 32962 ft 538 kts 172°
2026-05-08 04:13 31.07509 69.52965 33000 ft 540 kts 171°
2026-05-08 04:13 31.00153 69.54803 32969 ft 542 kts 171°
2026-05-08 04:14 30.92808 69.56635 32943 ft 543 kts 171°
2026-05-08 04:14 30.85426 69.58467 32950 ft 542 kts 171°
2026-05-08 04:15 30.78049 69.60291 32946 ft 541 kts 171°
2026-05-08 04:15 30.70688 69.62109 32943 ft 540 kts 171°
2026-05-08 04:16 30.63337 69.63922 32929 ft 538 kts 172°
2026-05-08 04:16 30.56056 69.65715 32939 ft 538 kts 172°
2026-05-08 04:17 30.48710 69.67520 32944 ft 538 kts 172°
2026-05-08 04:17 30.41374 69.69322 32908 ft 539 kts 172°
2026-05-08 04:18 30.34076 69.71110 32910 ft 539 kts 172°
2026-05-08 04:18 30.26712 69.72913 32918 ft 540 kts 172°
2026-05-08 04:19 30.19377 69.74838 32917 ft 542 kts 169°
2026-05-08 04:19 30.12132 69.77002 32900 ft 541 kts 169°
2026-05-08 04:20 30.04822 69.79200 32912 ft 541 kts 169°
2026-05-08 04:20 29.97530 69.81343 32893 ft 540 kts 169°
2026-05-08 04:21 29.90244 69.83455 32875 ft 540 kts 169°
2026-05-08 04:21 29.83005 69.85545 32881 ft 539 kts 169°
2026-05-08 04:22 29.75718 69.87654 32885 ft 540 kts 169°
2026-05-08 04:22 29.68423 69.89763 32866 ft 540 kts 169°
2026-05-08 04:23 29.61120 69.91870 32854 ft 541 kts 169°
2026-05-08 04:23 29.55056 69.93621 32852 ft 540 kts 169°
2026-05-08 04:24 29.46577 69.96060 32840 ft 540 kts 169°
2026-05-08 04:24 29.40487 69.97806 32802 ft 540 kts 169°
2026-05-08 04:25 29.33186 69.99901 32825 ft 540 kts 170°
2026-05-08 04:25 29.25896 70.01990 32822 ft 540 kts 170°
2026-05-08 04:26 29.18597 70.04078 32814 ft 540 kts 170°
2026-05-08 04:26 29.11347 70.06150 32806 ft 540 kts 170°
2026-05-08 04:27 29.04061 70.08228 32804 ft 539 kts 170°
2026-05-08 04:27 28.96774 70.10304 32800 ft 539 kts 170°
2026-05-08 04:28 28.89496 70.12373 32803 ft 539 kts 170°
2026-05-08 04:28 28.82208 70.14443 32788 ft 539 kts 170°
2026-05-08 04:29 28.74963 70.16498 32795 ft 539 kts 170°
2026-05-08 04:29 28.67675 70.18562 32798 ft 539 kts 170°
2026-05-08 04:30 28.60385 70.20624 32797 ft 540 kts 170°
2026-05-08 04:30 28.53087 70.22685 32795 ft 540 kts 170°
2026-05-08 04:31 28.45774 70.24748 32791 ft 541 kts 170°
2026-05-08 04:31 28.38747 70.27597 32785 ft 547 kts 147°
2026-05-08 04:32 28.35833 70.30376 32787 ft 549 kts 132°
2026-05-08 04:32 28.33579 70.33871 32778 ft 548 kts 115°
2026-05-08 04:32 28.30416 70.41691 32775 ft 547 kts 112°
2026-05-08 04:33 28.27188 70.49558 32795 ft 551 kts 113°
2026-05-08 04:33 28.23860 70.57386 32799 ft 554 kts 114°
2026-05-08 04:34 28.20483 70.65241 32781 ft 554 kts 114°
2026-05-08 04:34 28.17102 70.73102 32776 ft 553 kts 114°
2026-05-08 04:35 28.13761 70.80875 32763 ft 551 kts 114°
2026-05-08 04:35 28.10411 70.88660 32814 ft 549 kts 114°
2026-05-08 04:36 28.07050 70.96453 32783 ft 549 kts 114°
2026-05-08 04:36 28.03714 71.04173 32784 ft 548 kts 114°
2026-05-08 04:37 28.00387 71.11856 32789 ft 548 kts 114°
2026-05-08 04:37 27.97022 71.19614 32784 ft 549 kts 114°
2026-05-08 04:38 27.93650 71.27372 32773 ft 549 kts 114°
2026-05-08 04:38 27.90273 71.35130 32778 ft 550 kts 114°
2026-05-08 04:39 27.86889 71.42887 32792 ft 550 kts 114°
2026-05-08 04:39 27.83414 71.50561 32787 ft 551 kts 116°
2026-05-08 04:40 27.79834 71.58252 32805 ft 552 kts 116°
2026-05-08 04:40 27.76262 71.65936 32797 ft 553 kts 116°
2026-05-08 04:41 27.72726 71.73576 32788 ft 552 kts 116°
2026-05-08 04:41 27.69172 71.81259 32778 ft 552 kts 116°
2026-05-08 04:42 27.65610 71.88944 32792 ft 552 kts 116°
2026-05-08 04:42 27.62046 71.96615 32801 ft 552 kts 116°
2026-05-08 04:43 27.58475 72.04286 32800 ft 552 kts 116°
2026-05-08 04:43 27.54896 72.11960 32795 ft 552 kts 116°
2026-05-08 04:44 27.51337 72.19576 32790 ft 552 kts 116°
2026-05-08 04:44 27.47753 72.27234 32808 ft 552 kts 116°
2026-05-08 04:45 27.44165 72.34885 32803 ft 552 kts 116°
2026-05-08 04:45 27.40576 72.42525 32802 ft 552 kts 116°
2026-05-08 04:46 27.36982 72.50162 32799 ft 552 kts 116°
2026-05-08 04:46 27.33384 72.57793 32803 ft 552 kts 116°
2026-05-08 04:47 27.29797 72.65388 32811 ft 552 kts 116°
2026-05-08 04:47 27.26179 72.73032 32806 ft 553 kts 116°
2026-05-08 04:48 27.22564 72.80660 32801 ft 553 kts 116°
2026-05-08 04:48 27.18963 72.88242 32803 ft 552 kts 116°
2026-05-08 04:49 27.15335 72.95869 32816 ft 552 kts 116°
2026-05-08 04:49 27.11706 73.03485 32805 ft 553 kts 116°
2026-05-08 04:50 27.08075 73.11090 32807 ft 553 kts 116°
2026-05-08 04:50 27.04441 73.18690 32789 ft 553 kts 116°
2026-05-08 04:51 27.00824 73.26239 32804 ft 552 kts 116°
2026-05-08 04:51 26.97185 73.33826 32828 ft 552 kts 117°
2026-05-08 04:52 26.93522 73.41408 32816 ft 553 kts 117°
2026-05-08 04:52 26.89837 73.48927 32814 ft 553 kts 117°
2026-05-08 04:53 26.86126 73.56482 32818 ft 553 kts 117°
2026-05-08 04:53 26.82414 73.64041 32820 ft 553 kts 117°
2026-05-08 04:54 26.78714 73.71573 32819 ft 553 kts 117°
2026-05-08 04:54 26.75003 73.79113 32826 ft 552 kts 117°
2026-05-08 04:55 26.71316 73.86589 32828 ft 552 kts 117°
2026-05-08 04:55 26.67592 73.94127 32833 ft 552 kts 117°
2026-05-08 04:56 26.63874 74.01644 32855 ft 552 kts 117°
2026-05-08 04:56 26.60162 74.09134 32851 ft 553 kts 117°
2026-05-08 04:57 26.56432 74.16650 32826 ft 552 kts 118°
2026-05-08 04:57 26.52717 74.24166 32853 ft 552 kts 117°
2026-05-08 04:58 26.49039 74.31701 32856 ft 552 kts 117°
2026-05-08 04:58 26.45369 74.39216 32877 ft 552 kts 117°
2026-05-08 04:59 26.41684 74.46730 32866 ft 553 kts 117°
2026-05-08 04:59 26.37977 74.54268 32866 ft 553 kts 117°
2026-05-08 05:00 26.34292 74.61749 32867 ft 553 kts 117°
2026-05-08 05:00 26.30581 74.69270 32863 ft 553 kts 117°
2026-05-08 05:01 26.26867 74.76786 32871 ft 553 kts 117°
2026-05-08 05:01 26.23171 74.84254 32866 ft 554 kts 117°
2026-05-08 05:02 26.19448 74.91766 32866 ft 554 kts 118°
2026-05-08 05:02 26.15535 74.99174 32868 ft 555 kts 123°
2026-05-08 05:03 26.11185 75.06265 32880 ft 555 kts 124°
2026-05-08 05:03 26.06811 75.13354 32856 ft 555 kts 124°
2026-05-08 05:04 26.02503 75.20412 32864 ft 554 kts 124°
2026-05-08 05:04 25.98172 75.27529 32877 ft 554 kts 124°
2026-05-08 05:05 25.93851 75.34612 32877 ft 553 kts 124°
2026-05-08 05:05 25.89527 75.41685 32873 ft 553 kts 124°
2026-05-08 05:06 25.85141 75.48644 32883 ft 553 kts 127°
2026-05-08 05:06 25.80465 75.55440 32867 ft 553 kts 128°
2026-05-08 05:07 25.75761 75.62200 32874 ft 552 kts 128°
2026-05-08 05:07 25.71109 75.68980 32879 ft 553 kts 127°
2026-05-08 05:08 25.66470 75.75790 32874 ft 553 kts 127°
2026-05-08 05:08 25.61857 75.82558 32884 ft 553 kts 128°
2026-05-08 05:09 25.57209 75.89357 32877 ft 553 kts 128°
2026-05-08 05:09 25.52579 75.96116 32868 ft 553 kts 128°
2026-05-08 05:10 25.45598 76.06287 32869 ft 553 kts 128°
2026-05-08 05:11 25.40941 76.13061 32893 ft 553 kts 128°
2026-05-08 05:11 25.36276 76.19839 32880 ft 553 kts 128°
2026-05-08 05:12 25.32399 76.25462 32884 ft 553 kts 128°
2026-05-08 05:12 25.27728 76.32230 32888 ft 552 kts 128°
2026-05-08 05:13 25.23055 76.38991 32889 ft 553 kts 128°
2026-05-08 05:13 25.18397 76.45720 32893 ft 554 kts 128°
2026-05-08 05:14 25.13707 76.52486 32907 ft 555 kts 128°
2026-05-08 05:14 25.09005 76.59260 32880 ft 555 kts 128°
2026-05-08 05:15 25.04309 76.66019 32889 ft 555 kts 128°
2026-05-08 05:15 24.99562 76.72733 32894 ft 554 kts 132°
2026-05-08 05:16 24.94303 76.78907 32902 ft 552 kts 136°
2026-05-08 05:16 24.88951 76.84985 32906 ft 553 kts 136°
2026-05-08 05:17 24.83617 76.91087 32905 ft 553 kts 136°
2026-05-08 05:17 24.78329 76.97179 32902 ft 553 kts 135°
2026-05-08 05:18 24.73026 77.03295 32904 ft 552 kts 135°
2026-05-08 05:18 24.67711 77.09413 32907 ft 552 kts 136°
2026-05-08 05:19 24.62396 77.15518 32908 ft 552 kts 136°
2026-05-08 05:19 24.57114 77.21576 32908 ft 552 kts 136°
2026-05-08 05:20 24.51802 77.27661 32916 ft 551 kts 136°
2026-05-08 05:20 24.46489 77.33740 32894 ft 551 kts 136°
2026-05-08 05:21 24.41179 77.39806 32917 ft 550 kts 136°
2026-05-08 05:21 24.35877 77.45856 32923 ft 549 kts 136°
2026-05-08 05:22 24.30614 77.51853 32924 ft 549 kts 136°
2026-05-08 05:22 24.25391 77.57798 32923 ft 550 kts 136°
2026-05-08 05:23 24.20081 77.63834 32931 ft 550 kts 136°
2026-05-08 05:23 24.14770 77.69864 32928 ft 549 kts 136°
2026-05-08 05:24 24.09456 77.75889 32922 ft 549 kts 136°
2026-05-08 05:24 24.04143 77.81904 32925 ft 549 kts 136°
2026-05-08 05:25 23.98858 77.87881 32929 ft 549 kts 137°
2026-05-08 05:25 23.93541 77.93887 32925 ft 550 kts 137°
2026-05-08 05:26 23.88218 77.99892 32915 ft 549 kts 137°
2026-05-08 05:26 23.82911 78.05872 32920 ft 547 kts 137°
2026-05-08 05:27 23.77605 78.11842 32923 ft 547 kts 137°
2026-05-08 05:27 23.72333 78.17767 32922 ft 546 kts 137°
2026-05-08 05:28 23.67029 78.23720 32921 ft 546 kts 137°
2026-05-08 05:28 23.61736 78.29655 32907 ft 545 kts 137°
2026-05-08 05:29 23.56442 78.35582 32929 ft 544 kts 137°
2026-05-08 05:29 23.51189 78.41457 32937 ft 544 kts 137°
2026-05-08 05:30 23.45907 78.47357 32925 ft 544 kts 137°
2026-05-08 05:30 23.40619 78.53257 32932 ft 544 kts 137°
2026-05-08 05:31 23.35325 78.59156 32935 ft 544 kts 137°
2026-05-08 05:31 23.30038 78.65041 32927 ft 542 kts 137°
2026-05-08 05:32 23.24764 78.70907 32933 ft 541 kts 137°
2026-05-08 05:32 23.19483 78.76728 32925 ft 540 kts 139°
2026-05-08 05:33 23.14155 78.82398 32930 ft 538 kts 139°
2026-05-08 05:33 23.08775 78.88082 32925 ft 538 kts 139°
2026-05-08 05:34 23.03440 78.93742 32896 ft 538 kts 139°
2026-05-08 05:34 22.98091 78.99430 32915 ft 537 kts 139°
2026-05-08 05:35 22.92755 79.05100 32934 ft 536 kts 139°
2026-05-08 05:35 22.87417 79.10762 32922 ft 535 kts 139°
2026-05-08 05:36 22.82123 79.16369 32918 ft 535 kts 139°
2026-05-08 05:36 22.76792 79.22011 32918 ft 535 kts 139°
2026-05-08 05:37 22.71466 79.27639 32915 ft 534 kts 139°
2026-05-08 05:37 22.66148 79.33256 32926 ft 533 kts 139°
2026-05-08 05:38 22.60839 79.38856 32928 ft 532 kts 139°
2026-05-08 05:38 22.55550 79.44437 32932 ft 531 kts 139°
2026-05-08 05:39 22.50345 79.50133 32935 ft 532 kts 137°
2026-05-08 05:39 22.45222 79.55830 32944 ft 532 kts 137°
2026-05-08 05:40 22.40051 79.61552 32923 ft 531 kts 138°
2026-05-08 05:40 22.34865 79.67256 32942 ft 531 kts 138°
2026-05-08 05:41 22.29715 79.72906 32937 ft 531 kts 138°
2026-05-08 05:41 22.24536 79.78581 32950 ft 530 kts 138°
2026-05-08 05:42 22.19344 79.84268 32944 ft 531 kts 138°
2026-05-08 05:42 22.14171 79.89928 32928 ft 531 kts 138°
2026-05-08 05:43 22.08989 79.95592 33003 ft 532 kts 138°
2026-05-08 05:43 22.06392 79.98427 33293 ft 530 kts 138°
2026-05-08 05:43 22.03806 80.01251 33657 ft 528 kts 138°
2026-05-08 05:43 22.01231 80.04061 34014 ft 526 kts 139°
2026-05-08 05:44 21.98667 80.06857 34333 ft 523 kts 139°
2026-05-08 05:44 21.96110 80.09644 34614 ft 522 kts 139°
2026-05-08 05:44 21.93550 80.12431 34847 ft 522 kts 139°
2026-05-08 05:45 21.88429 80.18000 34934 ft 524 kts 139°
2026-05-08 05:45 21.83328 80.23543 34939 ft 524 kts 139°
2026-05-08 05:46 21.78205 80.29107 34949 ft 523 kts 139°
2026-05-08 05:46 21.73083 80.34664 34947 ft 522 kts 139°
2026-05-08 05:47 21.67964 80.40210 34946 ft 522 kts 139°
2026-05-08 05:47 21.62850 80.45744 34944 ft 521 kts 139°
2026-05-08 05:48 21.57734 80.51276 34946 ft 522 kts 139°
2026-05-08 05:48 21.52608 80.56814 34935 ft 522 kts 139°
2026-05-08 05:49 21.47532 80.62325 34945 ft 521 kts 138°
2026-05-08 05:49 21.42482 80.67917 34941 ft 521 kts 138°
2026-05-08 05:50 21.37433 80.73503 34938 ft 521 kts 138°
2026-05-08 05:50 21.32373 80.79075 34938 ft 520 kts 138°
2026-05-08 05:51 21.27320 80.84628 34938 ft 519 kts 138°
2026-05-08 05:51 21.22300 80.90140 34917 ft 519 kts 138°
2026-05-08 05:52 21.17258 80.95673 34935 ft 518 kts 138°
2026-05-08 05:52 21.12206 81.01212 34936 ft 518 kts 138°
2026-05-08 05:53 21.07197 81.06698 34920 ft 517 kts 138°
2026-05-08 05:53 21.02157 81.12212 34920 ft 517 kts 138°
2026-05-08 05:54 20.97129 81.17707 34921 ft 517 kts 138°
2026-05-08 05:54 20.92088 81.23212 34933 ft 517 kts 138°
2026-05-08 05:55 20.87060 81.28697 34928 ft 516 kts 138°
2026-05-08 05:55 20.82068 81.34139 34926 ft 515 kts 138°
2026-05-08 05:56 20.77050 81.39621 34929 ft 514 kts 138°
2026-05-08 05:56 20.72089 81.45131 34928 ft 514 kts 137°
2026-05-08 05:57 20.67141 81.50640 34927 ft 514 kts 138°
2026-05-08 05:57 20.62210 81.56112 34928 ft 513 kts 138°
2026-05-08 05:58 20.58083 81.60681 34917 ft 513 kts 138°
2026-05-08 05:58 20.53133 81.66155 34934 ft 512 kts 138°
2026-05-08 05:59 20.48178 81.71630 34928 ft 512 kts 138°
2026-05-08 05:59 20.43220 81.77104 34928 ft 512 kts 138°
2026-05-08 06:00 20.38293 81.82538 34935 ft 512 kts 138°
2026-05-08 06:00 20.33346 81.87989 34936 ft 511 kts 138°
2026-05-08 06:01 20.28397 81.93437 34927 ft 511 kts 138°
2026-05-08 06:01 20.23451 81.98878 34938 ft 511 kts 138°
2026-05-08 06:02 20.18520 82.04325 34942 ft 511 kts 138°
2026-05-08 06:02 20.13604 82.09795 34941 ft 511 kts 137°
2026-05-08 06:03 20.08695 82.15255 34942 ft 510 kts 137°
2026-05-08 06:03 20.03799 82.20691 34938 ft 510 kts 138°
2026-05-08 06:04 19.98878 82.26143 34944 ft 510 kts 138°
2026-05-08 06:04 19.93964 82.31583 34937 ft 510 kts 137°
2026-05-08 06:05 19.89049 82.37019 34947 ft 509 kts 137°
2026-05-08 06:05 19.84167 82.42413 34940 ft 509 kts 138°
2026-05-08 06:06 19.79260 82.47830 34941 ft 509 kts 138°
2026-05-08 06:06 19.74351 82.53245 34948 ft 509 kts 138°
2026-05-08 06:07 19.69434 82.58663 34927 ft 509 kts 138°
2026-05-08 06:07 19.65029 82.63512 34940 ft 508 kts 138°
2026-05-08 06:08 19.60151 82.68877 34946 ft 508 kts 137°
2026-05-08 06:08 19.55244 82.74269 34943 ft 508 kts 138°
2026-05-08 06:09 19.50325 82.79670 34951 ft 508 kts 138°
2026-05-08 06:09 19.45416 82.85054 34955 ft 508 kts 138°
2026-05-08 06:10 19.40495 82.90445 34961 ft 507 kts 138°
2026-05-08 06:10 19.35586 82.95821 34961 ft 508 kts 138°
2026-05-08 06:11 19.30671 83.01197 34954 ft 507 kts 138°
2026-05-08 06:11 19.25770 83.06552 34973 ft 507 kts 138°
2026-05-08 06:12 19.20894 83.11877 34980 ft 507 kts 138°
2026-05-08 06:12 19.15988 83.17228 34967 ft 506 kts 138°
2026-05-08 06:13 19.11074 83.22584 34977 ft 506 kts 138°
2026-05-08 06:13 19.06217 83.27873 34978 ft 506 kts 138°
2026-05-08 06:14 19.01294 83.33230 34965 ft 506 kts 138°
2026-05-08 06:14 18.96369 83.38582 34949 ft 506 kts 138°
2026-05-08 06:15 18.91473 83.43900 34959 ft 504 kts 138°
2026-05-08 06:15 18.86576 83.49201 34935 ft 504 kts 138°
2026-05-08 06:16 18.81681 83.54502 34936 ft 504 kts 138°
2026-05-08 06:16 18.76846 83.59738 34935 ft 504 kts 138°
2026-05-08 06:17 18.69524 83.67657 34925 ft 504 kts 138°
2026-05-08 06:17 18.64619 83.72956 34918 ft 504 kts 138°
2026-05-08 06:18 18.59716 83.78247 34914 ft 504 kts 138°
2026-05-08 06:18 18.54809 83.83539 34916 ft 504 kts 138°
2026-05-08 06:19 18.49901 83.88827 34911 ft 505 kts 138°
2026-05-08 06:19 18.44988 83.94115 34911 ft 504 kts 138°
2026-05-08 06:20 18.40082 83.99393 34908 ft 503 kts 138°
2026-05-08 06:20 18.35218 84.04621 34910 ft 503 kts 138°
2026-05-08 06:21 18.30316 84.09885 34897 ft 501 kts 138°
2026-05-08 06:21 18.25418 84.15116 34899 ft 500 kts 138°
2026-05-08 06:22 18.20554 84.20262 34904 ft 499 kts 138°
2026-05-08 06:22 18.15659 84.25436 34904 ft 498 kts 138°
2026-05-08 06:23 18.10773 84.30606 34905 ft 497 kts 139°
2026-05-08 06:23 18.05888 84.35772 34901 ft 497 kts 139°
2026-05-08 06:24 18.01018 84.40920 34898 ft 496 kts 139°
2026-05-08 06:24 17.96155 84.46055 34902 ft 495 kts 139°
2026-05-08 06:25 17.91317 84.51158 34896 ft 494 kts 139°
2026-05-08 06:25 17.86465 84.56273 34898 ft 493 kts 139°
2026-05-08 06:26 17.81650 84.61345 34905 ft 493 kts 139°
2026-05-08 06:26 17.76804 84.66445 34899 ft 493 kts 139°
2026-05-08 06:27 17.71958 84.71541 34893 ft 493 kts 139°
2026-05-08 06:27 17.67116 84.76630 34892 ft 493 kts 139°
2026-05-08 06:28 17.62302 84.81768 34894 ft 493 kts 138°
2026-05-08 06:28 17.57530 84.86922 34893 ft 492 kts 137°
2026-05-08 06:29 17.52776 84.92046 34894 ft 492 kts 138°
2026-05-08 06:29 17.47985 84.97194 34893 ft 492 kts 138°
2026-05-08 06:30 17.43202 85.02325 34891 ft 492 kts 138°
2026-05-08 06:30 17.38439 85.07432 34894 ft 492 kts 138°
2026-05-08 06:31 17.33656 85.12556 34881 ft 492 kts 137°
2026-05-08 06:31 17.28866 85.17683 34890 ft 491 kts 137°
2026-05-08 06:32 17.24119 85.22762 34883 ft 491 kts 137°
2026-05-08 06:32 17.19346 85.27866 34900 ft 490 kts 137°
2026-05-08 06:33 17.14603 85.32989 34887 ft 490 kts 136°
2026-05-08 06:33 17.09985 85.38251 34887 ft 491 kts 135°
2026-05-08 06:34 17.05421 85.43511 34884 ft 490 kts 136°
2026-05-08 06:34 17.00818 85.48778 34884 ft 491 kts 136°
2026-05-08 06:35 16.96194 85.54040 34891 ft 491 kts 135°
2026-05-08 06:35 16.91565 85.59296 34887 ft 492 kts 136°
2026-05-08 06:36 16.86930 85.64555 34886 ft 492 kts 136°
2026-05-08 06:36 16.82316 85.69787 34887 ft 493 kts 136°
2026-05-08 06:37 16.77673 85.75050 34885 ft 493 kts 136°
2026-05-08 06:37 16.73017 85.80323 34869 ft 493 kts 136°
2026-05-08 06:38 16.68371 85.85581 34885 ft 493 kts 136°
2026-05-08 06:38 16.63721 85.90838 34886 ft 493 kts 135°
2026-05-08 06:39 16.59069 85.96094 34883 ft 492 kts 135°
2026-05-08 06:39 16.54445 86.01315 34875 ft 492 kts 135°
2026-05-08 06:40 16.49799 86.06556 34876 ft 492 kts 135°
2026-05-08 06:40 16.45144 86.11804 34876 ft 492 kts 135°
2026-05-08 06:41 16.40524 86.17007 34876 ft 492 kts 135°
2026-05-08 06:41 16.35877 86.22237 34875 ft 492 kts 135°
2026-05-08 06:42 16.31208 86.27489 34874 ft 492 kts 135°
2026-05-08 06:42 16.26582 86.32689 34878 ft 491 kts 135°
2026-05-08 06:43 16.21941 86.37901 34875 ft 490 kts 135°
2026-05-08 06:43 16.17300 86.43109 34871 ft 490 kts 135°
2026-05-08 06:44 16.12668 86.48303 34869 ft 489 kts 135°
2026-05-08 06:44 16.08039 86.53490 34871 ft 489 kts 135°
2026-05-08 06:45 16.03436 86.58644 34870 ft 489 kts 135°
2026-05-08 06:45 15.98797 86.63835 34873 ft 489 kts 135°
2026-05-08 06:46 15.94944 86.68142 34870 ft 489 kts 135°
2026-05-08 06:46 15.90310 86.73320 34871 ft 489 kts 135°
2026-05-08 06:47 15.85667 86.78505 34870 ft 490 kts 135°
2026-05-08 06:47 15.81019 86.83690 34873 ft 490 kts 135°
2026-05-08 06:48 15.76392 86.88851 34874 ft 490 kts 135°
2026-05-08 06:48 15.71736 86.94038 34871 ft 490 kts 135°
2026-05-08 06:49 15.67077 86.99225 34871 ft 491 kts 135°
2026-05-08 06:49 15.62414 87.04413 34873 ft 491 kts 135°
2026-05-08 06:50 15.57749 87.09599 34871 ft 491 kts 135°
2026-05-08 06:50 15.53127 87.14735 34866 ft 490 kts 135°
2026-05-08 06:51 15.48475 87.19901 34868 ft 490 kts 135°
2026-05-08 06:51 15.43860 87.25021 34868 ft 489 kts 135°
2026-05-08 06:52 15.39213 87.30173 34869 ft 489 kts 135°
2026-05-08 06:52 15.34564 87.35324 34868 ft 489 kts 135°
2026-05-08 06:53 15.29921 87.40466 34863 ft 488 kts 135°
2026-05-08 06:53 15.25282 87.45621 34863 ft 489 kts 134°
2026-05-08 06:54 15.20765 87.50835 34863 ft 489 kts 133°
2026-05-08 06:54 15.16235 87.56126 34864 ft 489 kts 134°
2026-05-08 06:55 15.11719 87.61379 34864 ft 490 kts 134°
2026-05-08 06:55 15.07200 87.66611 34862 ft 490 kts 134°
2026-05-08 06:56 15.02650 87.71868 34862 ft 490 kts 134°
2026-05-08 06:56 14.98097 87.77125 34863 ft 490 kts 134°
2026-05-08 06:57 14.93541 87.82382 34865 ft 490 kts 134°
2026-05-08 06:57 14.89017 87.87600 34862 ft 490 kts 134°
2026-05-08 06:58 14.84454 87.92859 34863 ft 490 kts 134°
2026-05-08 06:58 14.79898 87.98107 34863 ft 490 kts 134°
2026-05-08 06:59 14.75347 88.03344 34857 ft 489 kts 134°
2026-05-08 06:59 14.70823 88.08548 34857 ft 489 kts 134°
2026-05-08 07:00 14.66310 88.13736 34859 ft 489 kts 134°
2026-05-08 07:00 14.61757 88.18965 34860 ft 489 kts 134°
2026-05-08 07:01 14.57201 88.24195 34857 ft 489 kts 134°
2026-05-08 07:01 14.52669 88.29393 34855 ft 489 kts 134°
2026-05-08 07:02 14.48109 88.34622 34855 ft 489 kts 134°
2026-05-08 07:02 14.43558 88.39834 34854 ft 488 kts 133°
2026-05-08 07:03 14.39011 88.45041 34855 ft 488 kts 134°
2026-05-08 07:03 14.34459 88.50248 34856 ft 488 kts 134°
2026-05-08 07:04 14.29944 88.55410 34854 ft 487 kts 134°
2026-05-08 07:04 14.25398 88.60605 34856 ft 487 kts 133°
2026-05-08 07:05 14.20856 88.65791 34854 ft 487 kts 133°
2026-05-08 07:05 14.16316 88.70972 34855 ft 486 kts 133°
2026-05-08 07:06 14.11790 88.76134 34852 ft 485 kts 133°
2026-05-08 07:06 14.07269 88.81287 34852 ft 484 kts 133°
2026-05-08 07:07 14.02784 88.86394 34862 ft 483 kts 133°
2026-05-08 07:07 13.98272 88.91529 34855 ft 482 kts 133°
2026-05-08 07:08 13.93772 88.96649 34859 ft 482 kts 133°
2026-05-08 07:08 13.89279 89.01756 34854 ft 481 kts 133°
2026-05-08 07:09 13.84848 89.06790 34851 ft 481 kts 133°
2026-05-08 07:09 13.80354 89.11892 34861 ft 480 kts 133°
2026-05-08 07:10 13.75864 89.16986 34858 ft 481 kts 133°
2026-05-08 07:10 13.71398 89.22051 34859 ft 481 kts 133°
2026-05-08 07:11 13.66893 89.27156 34851 ft 482 kts 133°
2026-05-08 07:11 13.62390 89.32256 34856 ft 483 kts 133°
2026-05-08 07:12 13.57867 89.37376 34857 ft 483 kts 133°
2026-05-08 07:12 13.53336 89.42501 34856 ft 484 kts 133°
2026-05-08 07:13 13.48800 89.47629 34852 ft 485 kts 133°
2026-05-08 07:13 13.44293 89.52723 34858 ft 485 kts 133°
2026-05-08 07:14 13.39750 89.57852 34858 ft 485 kts 133°
2026-05-08 07:14 13.35196 89.62991 34861 ft 486 kts 133°
2026-05-08 07:15 13.30635 89.68135 34857 ft 486 kts 133°
2026-05-08 07:15 13.26116 89.73228 34854 ft 486 kts 133°
2026-05-08 07:16 13.21567 89.78352 34859 ft 485 kts 133°
2026-05-08 07:16 13.17020 89.83470 34848 ft 485 kts 133°
2026-05-08 07:17 13.12471 89.88588 34853 ft 485 kts 133°
2026-05-08 07:17 13.07919 89.93705 34856 ft 485 kts 133°
2026-05-08 07:18 13.03438 89.98743 34852 ft 485 kts 132°
2026-05-08 07:18 12.98893 90.03848 34853 ft 485 kts 133°
2026-05-08 07:19 12.94339 90.08959 34849 ft 485 kts 133°
2026-05-08 07:19 12.89791 90.14060 34846 ft 485 kts 133°
2026-05-08 07:20 12.85230 90.19174 34850 ft 484 kts 133°
2026-05-08 07:20 12.80710 90.24239 34846 ft 484 kts 133°
2026-05-08 07:21 12.76159 90.29335 34849 ft 484 kts 133°
2026-05-08 07:21 12.71608 90.34429 34852 ft 484 kts 133°
2026-05-08 07:22 12.67080 90.39494 34852 ft 485 kts 133°
2026-05-08 07:22 12.62521 90.44590 34852 ft 485 kts 133°
2026-05-08 07:23 12.57963 90.49683 34852 ft 485 kts 133°
2026-05-08 07:23 12.53405 90.54773 34848 ft 485 kts 133°
2026-05-08 07:24 12.48841 90.59867 34850 ft 485 kts 133°
2026-05-08 07:24 12.44304 90.64928 34847 ft 485 kts 133°
2026-05-08 07:25 12.39741 90.70015 34850 ft 485 kts 133°
2026-05-08 07:26 12.32891 90.77645 34851 ft 485 kts 132°
2026-05-08 07:26 12.28325 90.82728 34841 ft 485 kts 132°
2026-05-08 07:27 12.23765 90.87802 34845 ft 484 kts 132°
2026-05-08 07:27 12.19231 90.92845 34842 ft 484 kts 132°
2026-05-08 07:28 12.14672 90.97911 34842 ft 483 kts 133°
2026-05-08 07:28 12.10126 91.02962 34846 ft 483 kts 133°
2026-05-08 07:29 12.05570 91.08019 34846 ft 483 kts 133°
2026-05-08 07:29 12.01020 91.13069 34850 ft 483 kts 132°
2026-05-08 07:30 11.96471 91.18115 34845 ft 482 kts 132°
2026-05-08 07:30 11.91916 91.23165 34847 ft 482 kts 132°
2026-05-08 07:31 11.87376 91.28196 34846 ft 481 kts 132°
2026-05-08 07:31 11.82700 91.33086 34844 ft 481 kts 135°
2026-05-08 07:32 11.77885 91.37830 34849 ft 481 kts 136°
2026-05-08 07:32 11.73880 91.41770 34844 ft 481 kts 135°
2026-05-08 07:33 11.68290 91.47304 34846 ft 481 kts 135°
2026-05-08 07:33 11.64302 91.51263 34844 ft 481 kts 135°
2026-05-08 07:34 11.59501 91.56028 34848 ft 481 kts 135°
2026-05-08 07:34 11.54704 91.60785 34840 ft 480 kts 135°
2026-05-08 07:35 11.49939 91.65507 34838 ft 479 kts 135°
2026-05-08 07:35 11.45159 91.70242 34843 ft 479 kts 135°
2026-05-08 07:36 11.40424 91.74930 34843 ft 478 kts 135°
2026-05-08 07:36 11.35637 91.79659 34842 ft 478 kts 136°
2026-05-08 07:37 11.30690 91.84119 34850 ft 478 kts 139°
2026-05-08 07:37 11.25631 91.88534 34844 ft 478 kts 139°
2026-05-08 07:38 11.20579 91.92952 34837 ft 479 kts 139°
2026-05-08 07:38 11.15527 91.97394 34842 ft 479 kts 139°
2026-05-08 07:39 11.10510 92.01813 34841 ft 480 kts 139°
2026-05-08 07:39 11.05442 92.06275 34839 ft 481 kts 139°
2026-05-08 07:40 11.00374 92.10735 34837 ft 481 kts 139°
2026-05-08 07:40 10.95302 92.15195 34839 ft 481 kts 139°
2026-05-08 07:41 10.90268 92.19619 34838 ft 481 kts 139°
2026-05-08 07:41 10.85202 92.24070 34836 ft 481 kts 139°
2026-05-08 07:42 10.80133 92.28522 34836 ft 481 kts 139°
2026-05-08 07:42 10.75074 92.32963 34832 ft 481 kts 139°
2026-05-08 07:43 10.69996 92.37418 34835 ft 481 kts 139°
2026-05-08 07:43 10.64923 92.41866 34835 ft 482 kts 139°
2026-05-08 07:44 10.59846 92.46317 34839 ft 482 kts 139°
2026-05-08 07:44 10.54791 92.50745 34837 ft 483 kts 138°
2026-05-08 07:45 10.49693 92.55209 34835 ft 483 kts 138°
2026-05-08 07:45 10.44602 92.59666 34835 ft 483 kts 138°
2026-05-08 07:46 10.39509 92.64122 34835 ft 483 kts 138°
2026-05-08 07:46 10.34416 92.68576 34835 ft 483 kts 138°
2026-05-08 07:47 10.29316 92.73035 34832 ft 483 kts 138°
2026-05-08 07:47 10.24223 92.77485 34834 ft 483 kts 138°
2026-05-08 07:48 10.19114 92.81947 34838 ft 483 kts 138°
2026-05-08 07:48 10.14042 92.86375 34836 ft 483 kts 138°
2026-05-08 07:49 10.08956 92.90813 34832 ft 482 kts 138°
2026-05-08 07:49 10.03866 92.95253 34831 ft 481 kts 138°
2026-05-08 07:50 9.98827 92.99646 34829 ft 480 kts 138°
2026-05-08 07:50 9.93756 93.04066 34829 ft 480 kts 138°
2026-05-08 07:51 9.88684 93.08485 34833 ft 480 kts 138°
2026-05-08 07:51 9.83604 93.12908 34837 ft 481 kts 138°
2026-05-08 07:52 9.78480 93.17368 34842 ft 489 kts 138°
2026-05-08 07:52 9.73311 93.21867 34836 ft 493 kts 138°
2026-05-08 07:53 9.68088 93.26408 34835 ft 494 kts 138°
2026-05-08 07:53 9.62869 93.30945 34832 ft 494 kts 138°
2026-05-08 07:54 9.57653 93.35477 34833 ft 493 kts 138°
2026-05-08 07:54 9.52480 93.39970 34818 ft 492 kts 138°
2026-05-08 07:55 9.47283 93.44483 34813 ft 491 kts 138°
2026-05-08 07:55 9.42101 93.48980 34821 ft 491 kts 139°
2026-05-08 07:56 9.36901 93.53491 34834 ft 492 kts 139°
2026-05-08 07:56 9.31689 93.58011 34834 ft 494 kts 139°
2026-05-08 07:57 9.26493 93.62515 34819 ft 496 kts 139°
2026-05-08 07:57 9.21243 93.67064 34817 ft 497 kts 139°
2026-05-08 07:58 9.15983 93.71620 34847 ft 498 kts 139°
2026-05-08 07:58 9.10703 93.76191 34813 ft 499 kts 139°
2026-05-08 07:59 9.05442 93.80745 34841 ft 497 kts 139°
2026-05-08 07:59 9.00188 93.85291 34844 ft 496 kts 139°
2026-05-08 08:00 8.94937 93.89831 34811 ft 495 kts 139°
2026-05-08 08:00 8.89745 93.94321 34819 ft 492 kts 139°
2026-05-08 08:01 8.84691 93.98974 34812 ft 491 kts 132°
2026-05-08 08:01 8.80494 94.04400 34806 ft 490 kts 122°
2026-05-08 08:02 8.76914 94.10259 34814 ft 490 kts 121°
2026-05-08 08:02 8.73336 94.16126 34818 ft 490 kts 121°
2026-05-08 08:03 8.69744 94.21940 34833 ft 490 kts 122°
2026-05-08 08:03 8.66110 94.27794 34835 ft 491 kts 121°
2026-05-08 08:04 8.62478 94.33645 34818 ft 491 kts 121°
2026-05-08 08:04 8.58878 94.39445 34816 ft 490 kts 121°
2026-05-08 08:05 8.55475 94.45404 34837 ft 489 kts 117°
2026-05-08 08:05 8.52311 94.51509 34816 ft 489 kts 117°
2026-05-08 08:06 8.49159 94.57607 34836 ft 489 kts 117°
2026-05-08 08:06 8.45993 94.63687 34818 ft 489 kts 117°
2026-05-08 08:07 8.42811 94.69770 34820 ft 488 kts 117°
2026-05-08 08:07 8.39660 94.75788 34817 ft 488 kts 117°
2026-05-08 08:08 8.36486 94.81851 34818 ft 488 kts 117°
2026-05-08 08:08 8.33305 94.87923 34819 ft 488 kts 118°
2026-05-08 08:09 8.30141 94.93962 34833 ft 488 kts 117°
2026-05-08 08:09 8.26970 95.00013 34817 ft 487 kts 117°
2026-05-08 08:10 8.23790 95.06076 34819 ft 487 kts 117°
2026-05-08 08:10 8.20643 95.12075 34818 ft 486 kts 117°
2026-05-08 08:11 8.17473 95.18113 34818 ft 485 kts 117°
2026-05-08 08:11 8.14312 95.24135 34823 ft 485 kts 117°
2026-05-08 08:12 8.11148 95.30158 34821 ft 485 kts 117°
2026-05-08 08:12 8.08003 95.36144 34817 ft 486 kts 118°
2026-05-08 08:13 8.04824 95.42189 34816 ft 488 kts 118°
2026-05-08 08:13 8.01636 95.48251 34816 ft 489 kts 118°
2026-05-08 08:14 7.98458 95.54282 34818 ft 490 kts 118°
2026-05-08 08:14 7.95235 95.60375 34833 ft 495 kts 118°